Latitude: N 50° 09' 49" Longitude: W 05° 11' 53" Elevation: 168m ASL

There are 3 visitors online

Adverts

<- Previous Day | Today | Next Day ->

All Data for 14 January 2018

Time
A - D
Temp
A - D
Dew Point
A - D
Humidity
A - D
Pressure
A - D
Wind
A - D
Wind Dir Gust
A - D
Rain Rate
A - D
Rain Total
00:00 6.5 6.4 99 1013.9 3.1 SE 5.4 0.0 0.0
00:02 6.5 6.4 99 1014.1 3.1 SE 5.4 0.0 0.0
00:03 6.5 6.4 99 1014.0 3.1 SE 5.4 0.0 0.0
00:05 6.5 6.4 99 1014.1 2.2 SE 3.1 0.0 0.0
00:06 6.5 6.4 99 1013.9 2.2 SE 3.1 0.0 0.0
00:08 6.5 6.4 99 1014.0 3.8 SE 3.8 0.0 0.0
00:09 6.5 6.4 99 1014.1 2.2 SE 3.8 0.0 0.0
00:11 6.5 6.4 99 1013.9 2.2 SE 3.8 0.0 0.0
00:12 6.5 6.4 99 1014.1 3.8 SE 4.5 0.0 0.0
00:13 6.5 6.4 99 1014.0 2.2 SE 4.5 0.0 0.0
00:14 6.5 6.4 99 1014.0 2.2 SE 4.5 0.0 0.0
00:15 6.5 6.4 99 1014.2 4.5 SE 4.5 0.0 0.0
00:17 6.5 6.4 99 1014.0 4.5 SE 4.5 0.0 0.0
00:18 6.5 6.4 99 1014.1 3.8 SE 4.5 0.0 0.0
00:19 6.5 6.4 99 1014.2 4.5 SE 4.5 0.0 0.0
00:20 6.5 6.4 99 1014.2 3.8 SE 4.5 0.0 0.0
00:22 6.5 6.4 99 1014.4 3.1 SE 4.5 0.0 0.0
00:23 6.5 6.4 99 1014.3 3.1 SE 4.5 0.0 0.0
00:24 6.5 6.4 99 1014.2 3.1 SE 4.5 0.0 0.0
00:25 6.5 6.4 99 1014.3 3.1 SE 4.5 0.0 0.0
00:26 6.5 6.4 99 1014.2 2.2 SE 4.5 0.0 0.0
00:27 6.5 6.4 99 1014.2 3.1 SE 4.5 0.0 0.0
00:28 6.5 6.4 99 1014.4 3.1 SE 4.5 0.0 0.0
00:29 6.5 6.4 99 1014.3 3.1 SE 3.8 0.0 0.0
00:30 6.5 6.4 99 1014.2 2.2 SE 3.1 0.0 0.0
00:31 6.5 6.4 99 1014.3 2.2 SE 3.1 0.0 0.0
00:32 6.5 6.4 99 1014.2 1.6 SE 3.1 0.0 0.0
00:33 6.5 6.4 99 1014.3 2.2 SE 3.1 0.0 0.0
00:34 6.5 6.4 99 1014.2 3.1 SE 3.1 0.0 0.0
00:35 6.6 6.5 99 1014.4 0.7 SE 3.1 0.0 0.0
00:37 6.5 6.4 99 1014.2 1.6 SE 3.1 0.0 0.0
00:38 6.5 6.4 99 1014.3 2.2 SE 3.1 0.0 0.0
00:39 6.5 6.4 99 1014.2 1.6 SE 3.1 0.0 0.0
00:40 6.5 6.4 99 1014.2 1.6 SE 3.1 0.0 0.0
00:41 6.5 6.4 99 1014.3 1.6 SE 3.1 0.0 0.0
00:42 6.5 6.4 99 1014.2 1.6 SE 3.1 0.0 0.0
00:43 6.5 6.4 99 1014.2 1.6 SE 3.1 0.0 0.0
00:44 6.5 6.4 99 1014.2 3.8 SE 3.8 0.0 0.0
00:45 6.5 6.4 99 1014.3 0.7 SE 3.8 0.0 0.0
00:46 6.6 6.5 99 1014.2 1.6 SE 3.8 0.0 0.0
00:47 6.5 6.4 99 1014.2 3.8 SE 3.8 0.0 0.0
00:48 6.6 6.5 99 1014.3 2.2 SE 3.8 0.0 0.0
00:49 6.6 6.5 99 1014.2 2.2 SE 3.8 0.0 0.0
00:50 6.5 6.4 99 1014.1 3.8 SE 3.8 0.0 0.0
00:51 6.5 6.4 99 1014.2 1.6 SE 3.8 0.0 0.0
00:52 6.5 6.4 99 1014.1 1.6 SE 3.8 0.0 0.0
00:53 6.6 6.5 99 1014.1 3.1 SE 3.8 0.0 0.0
00:55 6.6 6.5 99 1014.2 1.6 SE 3.8 0.0 0.0
00:56 6.6 6.5 99 1014.4 1.6 SE 3.8 0.0 0.0
00:57 6.6 6.5 99 1014.2 1.6 SE 3.8 0.0 0.0
00:58 6.5 6.4 99 1014.2 2.2 SE 3.8 0.0 0.0
00:59 6.6 6.5 99 1014.2 1.6 SE 3.8 0.0 0.0
01:00 6.6 6.5 99 1014.2 0.7 SE 3.8 0.0 0.0
01:01 6.6 6.5 99 1014.2 0.7 SE 3.1 0.0 0.0
01:02 6.6 6.5 99 1014.2 0.7 SE 3.1 0.0 0.0
01:03 6.6 6.5 99 1014.1 0.7 SE 3.1 0.0 0.0
01:04 6.6 6.5 99 1014.2 0.7 SE 2.2 0.0 0.0
01:05 6.6 6.5 99 1014.2 0.7 SE 2.2 0.0 0.0
01:06 6.6 6.5 99 1014.2 0.7 SE 2.2 0.0 0.0
01:07 6.6 6.5 99 1014.1 0.7 SE 2.2 0.0 0.0
01:08 6.6 6.5 99 1014.3 0.7 SE 1.6 0.0 0.0
01:09 6.5 6.4 99 1014.2 1.6 SE 1.6 0.0 0.0
01:11 6.5 6.4 99 1014.3 2.2 SE 2.2 0.0 0.0
01:12 6.6 6.5 99 1014.3 0.7 SE 2.2 0.0 0.0
01:13 6.6 6.5 99 1014.1 3.1 SE 3.1 0.0 0.0
01:14 6.5 6.4 99 1014.3 0.7 SE 3.1 0.0 0.0
01:15 6.6 6.5 99 1014.3 1.6 SE 3.1 0.0 0.0
01:16 6.6 6.5 99 1014.3 1.6 SE 3.1 0.0 0.0
01:17 6.6 6.5 99 1014.4 1.6 SE 3.1 0.0 0.0
01:18 6.6 6.5 99 1014.2 0.7 SE 3.1 0.0 0.0
01:19 6.6 6.5 99 1014.2 0.7 SE 3.1 0.0 0.0
01:20 6.6 6.5 99 1014.3 1.6 SE 3.1 0.0 0.0
01:21 6.6 6.5 99 1014.4 1.6 SE 3.1 0.0 0.0
01:23 6.6 6.5 99 1014.2 1.6 SE 3.1 0.0 0.0
01:24 6.6 6.5 99 1014.2 0.7 SE 2.2 0.0 0.0
01:25 6.6 6.5 99 1014.3 1.6 SE 2.2 0.0 0.0
01:26 6.6 6.5 99 1014.3 1.6 SE 2.2 0.0 0.0
01:27 6.6 6.5 99 1014.2 0.7 SE 2.2 0.0 0.0
01:28 6.6 6.5 99 1014.3 1.6 SE 2.2 0.0 0.0
01:29 6.6 6.5 99 1014.3 2.2 SE 2.2 0.0 0.0
01:31 6.6 6.5 99 1014.4 1.6 SE 2.2 0.0 0.0
01:32 6.6 6.5 99 1014.4 0.7 SE 2.2 0.0 0.0
01:33 6.6 6.5 99 1014.4 1.6 SE 2.2 0.0 0.0
01:34 6.6 6.5 99 1014.3 3.1 SE 3.1 0.0 0.0
01:36 6.6 6.5 99 1014.2 1.6 SE 3.1 0.0 0.0
01:37 6.6 6.5 99 1014.2 0.7 SE 3.1 0.0 0.0
01:38 6.6 6.5 99 1014.3 1.6 SE 3.1 0.0 0.0
01:39 6.6 6.5 99 1014.4 0.7 SE 3.1 0.0 0.0
01:40 6.6 6.5 99 1014.3 0.7 SE 3.1 0.0 0.0
01:41 6.6 6.5 99 1014.3 0.7 SE 3.1 0.0 0.0
01:42 6.6 6.5 99 1014.2 0.7 SE 3.1 0.0 0.0
01:43 6.6 6.5 99 1014.4 0.7 SE 3.1 0.0 0.0
01:44 6.6 6.5 99 1014.3 0.7 SE 3.1 0.0 0.0
01:45 6.6 6.5 99 1014.3 2.2 SE 2.2 0.0 0.0
01:46 6.6 6.5 99 1014.4 3.8 NE 3.8 0.0 0.0
01:48 6.6 6.5 99 1014.3 1.6 E 3.8 0.0 0.0
01:49 6.6 6.5 99 1014.3 1.6 E 3.8 0.0 0.0
01:50 6.7 6.6 99 1014.5 2.2 E 3.8 0.0 0.0
01:51 6.7 6.6 99 1014.3 1.6 E 3.8 0.0 0.0
01:53 6.7 6.6 99 1014.4 2.2 E 3.8 0.0 0.0
01:54 6.7 6.6 99 1014.5 2.2 E 3.8 0.0 0.0
01:55 6.7 6.6 99 1014.5 4.5 E 4.5 0.0 0.0
01:56 6.7 6.6 99 1014.4 5.4 SE 5.4 0.0 0.0
01:57 6.7 6.6 99 1014.5 2.2 SE 5.4 0.0 0.0
01:58 6.7 6.6 99 1014.6 2.2 SE 5.4 0.0 0.0
01:59 6.7 6.6 99 1014.4 3.1 E 5.4 0.0 0.0
02:00 6.7 6.6 99 1014.6 3.1 E 5.4 0.0 0.0
02:01 6.7 6.6 99 1014.4 3.1 E 5.4 0.0 0.0
02:02 6.7 6.6 99 1014.4 3.1 E 5.4 0.0 0.0
02:03 6.7 6.6 99 1014.6 3.1 E 5.4 0.0 0.0
02:05 6.8 6.7 99 1014.5 1.6 E 5.4 0.0 0.0
02:06 6.8 6.7 99 1014.7 1.6 E 3.1 0.0 0.0
02:08 6.8 6.7 99 1014.5 0.7 E 3.1 0.0 0.0
02:09 6.8 6.7 99 1014.5 0.0 E 3.1 0.0 0.0
02:11 6.8 6.7 99 1014.5 1.6 E 3.1 0.0 0.0
02:12 6.8 6.7 99 1014.6 1.6 E 3.1 0.0 0.0
02:13 6.8 6.7 99 1014.7 1.6 E 3.1 0.0 0.0
02:14 6.8 6.7 99 1014.6 0.7 E 3.1 0.0 0.0
02:15 6.8 6.7 99 1014.7 0.7 E 3.1 0.0 0.0
02:16 6.8 6.7 99 1014.7 0.0 E 3.1 0.0 0.0
02:17 6.8 6.7 99 1014.6 0.0 E 3.1 0.0 0.0
02:19 6.8 6.7 99 1014.5 0.7 E 1.6 0.0 0.0
02:25 6.8 6.7 99 1014.7 0.0 E 2.2 0.0 0.1
02:26 6.8 6.7 99 1014.8 0.7 E 2.2 0.0 0.1
02:27 6.8 6.7 99 1014.9 0.7 E 2.2 0.0 0.1
02:28 6.8 6.7 99 1014.9 0.7 E 2.2 0.0 0.1
02:29 6.8 6.7 99 1014.8 0.0 E 2.2 0.0 0.1
02:30 6.8 6.7 99 1014.9 0.7 E 2.2 0.0 0.1
02:31 6.8 6.7 99 1014.9 0.7 E 1.6 0.0 0.1
02:32 6.8 6.7 99 1014.9 1.6 E 1.6 0.0 0.1
02:33 6.8 6.7 99 1015.0 0.7 E 1.6 0.0 0.1
02:34 6.8 6.7 99 1014.9 0.7 E 1.6 0.0 0.1
02:35 6.8 6.7 99 1014.8 0.7 E 1.6 0.0 0.1
02:36 6.8 6.7 99 1015.0 0.7 E 1.6 0.0 0.1
02:38 6.8 6.7 99 1014.9 0.7 E 1.6 0.0 0.1
02:39 6.8 6.7 99 1014.9 0.0 E 1.6 0.0 0.1
02:40 6.8 6.7 99 1014.8 0.7 E 1.6 0.0 0.1
02:41 6.8 6.7 99 1014.9 0.7 E 1.6 0.0 0.1
02:42 6.8 6.7 99 1015.0 0.0 E 1.6 0.0 0.1
02:43 6.8 6.7 99 1014.8 0.0 E 0.7 0.0 0.1
02:44 6.8 6.7 99 1015.0 0.0 E 0.7 0.0 0.1
02:45 6.8 6.7 99 1014.9 0.7 E 0.7 0.0 0.1
02:46 6.8 6.7 99 1014.9 0.7 E 1.6 0.0 0.1
02:47 6.8 6.7 99 1014.9 0.7 E 1.6 0.0 0.1
02:48 6.8 6.7 99 1015.0 1.6 E 1.6 0.0 0.1
02:49 6.8 6.7 99 1015.0 0.7 E 1.6 0.0 0.1
02:50 6.8 6.7 99 1014.9 0.7 E 1.6 0.0 0.1
02:51 6.8 6.7 99 1015.1 0.0 E 1.6 0.0 0.1
02:52 6.8 6.7 99 1015.2 0.0 E 1.6 0.0 0.1
02:53 6.8 6.7 99 1015.0 0.0 E 1.6 0.0 0.1
02:54 6.8 6.7 99 1015.0 0.0 E 1.6 0.0 0.1
02:56 6.8 6.7 99 1015.0 1.6 E 1.6 0.0 0.1
03:02 6.8 6.7 99 1014.9 1.6 E 2.2 0.0 0.1
03:03 6.8 6.7 99 1014.9 1.6 E 2.2 0.0 0.1
03:04 6.8 6.7 99 1015.1 1.6 E 2.2 0.0 0.1
03:05 6.8 6.7 99 1015.0 1.6 E 2.2 0.0 0.2
03:19 6.8 6.7 99 1015.0 0.0 E 1.6 0.0 0.4
03:31 6.8 6.7 99 1015.0 0.0 E 0.7 0.0 0.6
03:37 6.8 6.7 99 1015.0 1.6 E 2.2 0.0 0.6
03:38 6.8 6.7 99 1015.0 1.6 E 2.2 0.0 0.7
03:44 6.8 6.7 99 1015.1 0.7 E 2.2 0.0 0.8
03:57 6.8 6.7 99 1015.0 2.2 E 2.2 0.0 0.8
03:58 6.7 6.6 99 1015.0 1.6 E 2.2 0.0 0.8
03:59 6.7 6.6 99 1015.2 4.5 NE 4.5 0.0 0.8
04:00 6.7 6.6 99 1015.1 3.1 NE 4.5 0.0 0.8
04:01 6.7 6.6 99 1015.1 3.1 NE 4.5 0.0 0.8
04:02 6.7 6.6 99 1015.2 3.1 NE 4.5 0.0 0.8
04:03 6.7 6.6 99 1015.2 3.1 NE 4.5 0.0 0.8
04:04 6.7 6.6 99 1015.2 3.1 NE 4.5 0.0 0.8
04:05 6.8 6.7 99 1015.1 2.2 NE 4.5 0.0 0.8
04:07 6.8 6.7 99 1015.2 2.2 NE 4.5 0.0 0.8
04:08 6.8 6.7 99 1015.2 1.6 NE 4.5 0.0 0.8
04:09 6.8 6.7 99 1015.1 2.2 NE 3.1 0.0 0.9
04:15 6.8 6.7 99 1015.2 1.6 NE 2.2 0.0 0.9
04:16 6.8 6.7 99 1015.2 0.7 NE 2.2 0.0 0.9
04:17 6.8 6.7 99 1015.2 1.6 NE 2.2 0.0 0.9
04:18 6.8 6.7 99 1015.1 1.6 NE 2.2 0.0 0.9
04:19 6.8 6.7 99 1015.1 2.2 NE 2.2 0.0 0.9
04:20 6.7 6.6 99 1015.2 2.2 NE 2.2 0.0 0.9
04:26 6.7 6.6 99 1015.2 0.7 SE 3.1 0.0 0.9
04:27 6.7 6.6 99 1015.1 2.2 SE 3.1 0.0 0.9
04:28 6.7 6.6 99 1015.2 1.6 SE 3.1 0.0 0.9
04:29 6.7 6.6 99 1015.4 0.7 SE 3.1 0.0 0.9
04:30 6.7 6.6 99 1015.3 0.7 SE 3.1 0.0 0.9
04:31 6.7 6.6 99 1015.3 1.6 SE 3.1 0.0 0.9
04:33 6.7 6.6 99 1015.3 1.6 SE 2.2 0.0 0.9
04:34 6.7 6.6 99 1015.4 0.7 SE 2.2 0.0 0.9
04:35 6.7 6.6 99 1015.3 5.4 SE 5.4 0.0 0.9
04:36 6.7 6.6 99 1015.2 3.1 SE 5.4 0.0 0.9
04:42 6.7 6.6 99 1015.3 1.6 SE 5.4 0.0 1.0
04:43 6.7 6.6 99 1015.2 2.2 SE 5.4 0.0 1.0
04:44 6.7 6.6 99 1015.2 2.2 SE 5.4 0.0 1.0
04:45 6.7 6.6 99 1015.4 0.7 SE 3.1 0.0 1.0
04:46 6.7 6.6 99 1015.4 0.7 SE 3.1 0.0 1.0
04:47 6.7 6.6 99 1015.3 0.7 SE 2.2 0.0 1.0
04:48 6.7 6.6 99 1015.3 1.6 SE 2.2 0.0 1.0
04:50 6.7 6.6 99 1015.5 2.2 SE 2.2 0.0 1.0
04:51 6.7 6.6 99 1015.5 1.6 SE 2.2 0.0 1.0
04:52 6.7 6.6 99 1015.4 1.6 SE 2.2 0.0 1.0
04:53 6.7 6.6 99 1015.5 0.7 SE 2.2 0.0 1.0
04:54 6.7 6.6 99 1015.3 1.6 SE 2.2 0.0 1.0
04:55 6.7 6.6 99 1015.3 1.6 SE 2.2 0.0 1.0
04:56 6.7 6.6 99 1015.4 0.7 SE 2.2 0.0 1.0
04:57 6.7 6.6 99 1015.3 0.7 SE 2.2 0.0 1.0
04:58 6.7 6.6 99 1015.3 0.7 SE 2.2 0.0 1.0
04:59 6.7 6.6 99 1015.3 1.6 SE 2.2 0.0 1.0
05:00 6.7 6.6 99 1015.5 1.6 SE 2.2 0.0 1.0
05:01 6.7 6.6 99 1015.4 1.6 SE 2.2 0.0 1.0
05:02 6.7 6.6 99 1015.3 1.6 SE 2.2 0.0 1.0
05:03 6.7 6.6 99 1015.3 1.6 SE 2.2 0.0 1.0
05:04 6.7 6.6 99 1015.3 1.6 SE 1.6 0.0 1.0
05:05 6.7 6.6 99 1015.4 1.6 SE 1.6 0.0 1.0
05:07 6.7 6.6 99 1015.4 1.6 SE 1.6 0.0 1.0
05:08 6.7 6.6 99 1015.4 1.6 SE 1.6 0.0 1.0
05:09 6.7 6.6 99 1015.4 1.6 SE 1.6 0.0 1.0
05:10 6.7 6.6 99 1015.3 0.7 SE 1.6 0.0 1.0
05:11 6.7 6.6 99 1015.5 1.6 SE 1.6 0.0 1.0
05:12 6.7 6.6 99 1015.4 0.7 SE 1.6 0.0 1.0
05:13 6.7 6.6 99 1015.3 1.6 SE 1.6 0.0 1.0
05:14 6.7 6.6 99 1015.4 2.2 SE 2.2 0.0 1.0
05:15 6.7 6.6 99 1015.2 2.2 SE 2.2 0.0 1.0
05:16 6.7 6.6 99 1015.5 0.7 SE 2.2 0.0 1.0
05:17 6.7 6.6 99 1015.3 0.7 SE 2.2 0.0 1.0
05:18 6.7 6.6 99 1015.3 0.7 SE 2.2 0.0 1.0
05:19 6.7 6.6 99 1015.3 0.7 SE 2.2 0.0 1.0
05:20 6.7 6.6 99 1015.3 1.6 SE 2.2 0.0 1.0
05:21 6.7 6.6 99 1015.4 0.7 SE 2.2 0.0 1.0
05:22 6.7 6.6 99 1015.4 0.7 SE 2.2 0.0 1.0
05:23 6.7 6.6 99 1015.4 1.6 SE 2.2 0.0 1.0
05:25 6.7 6.6 99 1015.4 1.6 SE 2.2 0.0 1.0
05:26 6.7 6.6 99 1015.3 0.7 SE 1.6 0.0 1.0
05:27 6.7 6.6 99 1015.3 1.6 SE 1.6 0.0 1.0
05:28 6.7 6.6 99 1015.3 1.6 SE 1.6 0.0 1.0
05:29 6.7 6.6 99 1015.3 1.6 SE 1.6 0.0 1.0
05:30 6.7 6.6 99 1015.3 1.6 SE 1.6 0.0 1.0
05:31 6.7 6.6 99 1015.3 0.0 SE 1.6 0.0 1.0
05:32 6.7 6.6 99 1015.2 0.7 SE 1.6 0.0 1.0
05:33 6.7 6.6 99 1015.3 0.7 SE 1.6 0.0 1.0
05:34 6.7 6.6 99 1015.3 0.7 SE 1.6 0.0 1.0
05:35 6.7 6.6 99 1015.4 0.7 SE 1.6 0.0 1.0
05:36 6.7 6.6 99 1015.5 0.7 SE 1.6 0.0 1.0
05:37 6.7 6.6 99 1015.3 0.7 SE 1.6 0.0 1.0
05:38 6.6 6.5 99 1015.3 1.6 SE 1.6 0.0 1.0
05:39 6.6 6.5 99 1015.3 1.6 SE 1.6 0.0 1.0
05:40 6.6 6.5 99 1015.4 1.6 SE 1.6 0.0 1.0
05:42 6.7 6.6 99 1015.2 1.6 SE 1.6 0.0 1.0
05:43 6.6 6.5 99 1015.2 1.6 SE 1.6 0.0 1.0
05:44 6.6 6.5 99 1015.3 1.6 SE 1.6 0.0 1.0
05:45 6.6 6.5 99 1015.3 1.6 SE 1.6 0.0 1.0
05:51 6.6 6.5 99 1015.4 0.7 SE 2.2 0.0 1.1
05:52 6.6 6.5 99 1015.4 1.6 SE 2.2 0.0 1.1
05:53 6.6 6.5 99 1015.3 0.7 SE 2.2 0.0 1.1
05:54 6.6 6.5 99 1015.5 0.7 SE 2.2 0.0 1.1
05:55 6.6 6.5 99 1015.4 3.1 E 3.1 0.0 1.1
05:56 6.6 6.5 99 1015.2 2.2 E 3.1 0.0 1.1
05:58 6.6 6.5 99 1015.4 2.2 E 3.1 0.0 1.1
05:59 6.6 6.5 99 1015.4 2.2 E 3.1 0.0 1.1
06:00 6.6 6.5 99 1015.3 2.2 E 3.1 0.0 1.1
06:01 6.6 6.5 99 1015.3 2.2 E 3.1 0.0 1.1
06:02 6.6 6.5 99 1015.4 2.2 E 3.1 0.0 1.1
06:03 6.6 6.5 99 1015.4 2.2 E 3.1 0.0 1.1
06:04 6.6 6.5 99 1015.3 2.2 E 3.1 0.0 1.1
06:05 6.6 6.5 99 1015.4 3.1 E 3.1 0.0 1.1
06:06 6.6 6.5 99 1015.5 2.2 E 3.1 0.0 1.1
06:08 6.6 6.5 99 1015.4 2.2 E 3.1 0.0 1.1
06:09 6.6 6.5 99 1015.5 1.6 E 3.1 0.0 1.1
06:11 6.6 6.5 99 1015.6 1.6 E 3.1 0.0 1.1
06:12 6.6 6.5 99 1015.6 0.7 E 3.1 0.0 1.1
06:13 6.6 6.5 99 1015.6 1.6 E 3.1 0.0 1.1
06:14 6.6 6.5 99 1015.7 1.6 E 3.1 0.0 1.1
06:15 6.6 6.5 99 1015.6 1.6 E 3.1 0.0 1.1
06:16 6.6 6.5 99 1015.7 2.2 E 2.2 0.0 1.1
06:17 6.5 6.4 99 1015.7 1.6 E 2.2 0.0 1.1
06:18 6.6 6.5 99 1015.7 0.7 E 2.2 0.0 1.1
06:19 6.6 6.5 99 1015.7 1.6 E 2.2 0.0 1.1
06:20 6.6 6.5 99 1015.7 0.7 E 2.2 0.0 1.1
06:21 6.6 6.5 99 1015.6 0.7 E 2.2 0.0 1.1
06:22 6.6 6.5 99 1015.7 0.7 E 2.2 0.0 1.1
06:23 6.6 6.5 99 1015.8 1.6 E 2.2 0.0 1.1
06:24 6.6 6.5 99 1015.9 0.0 E 2.2 0.0 1.1
06:26 6.6 6.5 99 1015.8 1.6 E 2.2 0.0 1.1
06:27 6.6 6.5 99 1015.7 1.6 E 1.6 0.0 1.1
06:28 6.6 6.5 99 1015.8 2.2 E 2.2 0.0 1.1
06:29 6.6 6.5 99 1015.9 2.2 E 2.2 0.0 1.1
06:30 6.6 6.5 99 1015.7 2.2 E 3.1 0.0 1.1
06:31 6.6 6.5 99 1015.8 0.7 E 3.1 0.0 1.1
06:32 6.6 6.5 99 1015.9 2.2 E 3.1 0.0 1.1
06:33 6.6 6.5 99 1015.8 0.7 E 3.1 0.0 1.1
06:34 6.5 6.4 99 1015.7 2.2 E 3.1 0.0 1.1
06:35 6.5 6.4 99 1015.8 1.6 E 3.1 0.0 1.1
06:36 6.5 6.4 99 1015.8 1.6 E 3.1 0.0 1.1
06:37 6.5 6.4 99 1015.9 0.7 E 3.1 0.0 1.1
06:38 6.5 6.4 99 1015.7 2.2 E 3.1 0.0 1.1
06:40 6.5 6.4 99 1015.8 2.2 E 3.8 0.0 1.1
06:41 6.5 6.4 99 1015.8 3.1 E 3.8 0.0 1.1
06:42 6.5 6.4 99 1015.9 2.2 E 3.8 0.0 1.1
06:43 6.5 6.4 99 1015.8 3.1 E 3.8 0.0 1.1
06:44 6.5 6.4 99 1015.8 3.1 E 3.8 0.0 1.1
06:45 6.5 6.4 99 1015.7 1.6 E 3.8 0.0 1.1
06:46 6.5 6.4 99 1015.8 1.6 E 3.8 0.0 1.1
06:47 6.5 6.4 99 1015.7 2.2 E 3.8 0.0 1.1
06:48 6.5 6.4 99 1015.8 1.6 E 3.8 0.0 1.1
06:49 6.5 6.4 99 1015.7 2.2 E 3.1 0.0 1.1
06:50 6.5 6.4 99 1015.8 1.6 E 3.1 0.0 1.1
06:51 6.4 6.3 99 1015.8 2.2 E 3.1 0.0 1.1
06:53 6.4 6.3 99 1015.7 3.8 N 3.8 0.0 1.1
06:54 6.4 6.3 99 1015.7 3.1 N 3.8 0.0 1.1
06:55 6.4 6.3 99 1015.8 3.1 N 3.8 0.0 1.1
06:56 6.4 6.3 99 1015.7 3.8 N 3.8 0.0 1.1
06:57 6.4 6.3 99 1015.7 2.2 N 3.8 0.0 1.1
06:58 6.4 6.3 99 1015.7 3.8 NE 3.8 0.0 1.1
06:59 6.4 6.3 99 1015.6 3.1 NE 3.8 0.0 1.1
07:00 6.4 6.3 99 1015.7 3.1 NE 3.8 0.0 1.1
07:01 6.4 6.3 99 1015.6 3.1 NE 3.8 0.0 1.1
07:02 6.4 6.3 99 1015.7 3.1 NE 3.8 0.0 1.1
07:04 6.4 6.3 99 1015.7 3.1 NE 3.8 0.0 1.1
07:05 6.4 6.3 99 1015.7 3.1 NE 3.8 0.0 1.1
07:06 6.3 6.2 99 1015.8 3.1 NE 3.8 0.0 1.1
07:07 6.3 6.2 99 1015.8 2.2 NE 3.8 0.0 1.1
07:08 6.3 6.2 99 1015.8 2.2 N 3.8 0.0 1.1
07:09 6.3 6.2 99 1015.9 2.2 N 3.1 0.0 1.1
07:10 6.3 6.2 99 1016.0 3.1 N 3.1 0.0 1.1
07:11 6.3 6.2 99 1015.8 1.6 N 3.8 0.0 1.1
07:12 6.3 6.2 99 1015.9 3.1 N 3.8 0.0 1.1
07:13 6.3 6.2 99 1015.7 2.2 N 3.8 0.0 1.1
07:14 6.3 6.2 99 1015.9 2.2 N 3.8 0.0 1.1
07:15 6.3 6.2 99 1015.8 2.2 N 3.8 0.0 1.1
07:16 6.3 6.2 99 1015.9 3.1 N 3.8 0.0 1.1
07:18 6.3 6.2 99 1015.8 2.2 N 3.8 0.0 1.1
07:19 6.3 6.2 99 1015.9 1.6 N 3.8 0.0 1.1
07:20 6.3 6.2 99 1015.9 2.2 N 3.8 0.0 1.1
07:21 6.3 6.2 99 1015.8 1.6 N 3.8 0.0 1.1
07:22 6.3 6.2 99 1015.8 3.1 N 3.1 0.0 1.1
07:23 6.3 6.2 99 1015.9 2.2 N 3.1 0.0 1.1
07:24 6.3 6.2 99 1016.0 1.6 N 3.1 0.0 1.1
07:25 6.3 6.2 99 1015.7 2.2 N 3.1 0.0 1.1
07:26 6.3 6.2 99 1015.9 2.2 N 3.1 0.0 1.1
07:27 6.3 6.2 99 1015.9 1.6 N 3.1 0.0 1.1
07:28 6.3 6.2 99 1015.9 2.2 N 3.1 0.0 1.1
07:29 6.3 6.2 99 1015.8 2.2 N 3.1 0.0 1.1
07:30 6.3 6.2 99 1015.8 1.6 N 3.1 0.0 1.1
07:32 6.3 6.2 99 1015.9 2.2 N 3.1 0.0 1.1
07:33 6.3 6.2 99 1016.0 3.1 E 3.1 0.0 1.1
07:34 6.3 6.2 99 1016.2 1.6 E 3.1 0.0 1.1
07:35 6.3 6.2 99 1016.1 2.2 E 3.1 0.0 1.1
07:36 6.3 6.2 99 1016.2 3.8 NE 3.8 0.0 1.1
07:37 6.3 6.2 99 1016.2 3.1 NE 3.8 0.0 1.1
07:38 6.3 6.2 99 1016.2 2.2 NE 3.8 0.0 1.1
07:40 6.3 6.2 99 1016.2 3.1 NE 3.8 0.0 1.1
07:41 6.3 6.2 99 1016.3 1.6 NE 3.8 0.0 1.1
07:42 6.3 6.2 99 1016.3 5.4 NE 5.4 0.0 1.1
07:43 6.3 6.2 99 1016.3 2.2 NE 5.4 0.0 1.1
07:44 6.3 6.2 99 1016.2 2.2 NE 5.4 0.0 1.1
07:45 6.3 6.2 99 1016.3 3.1 NE 5.4 0.0 1.1
07:46 6.3 6.2 99 1016.2 2.2 NE 5.4 0.0 1.1
07:47 6.3 6.2 99 1016.2 2.2 NE 5.4 0.0 1.1
07:48 6.3 6.2 99 1016.2 3.8 NE 5.4 0.0 1.1
07:49 6.3 6.2 99 1016.2 1.6 NE 5.4 0.0 1.1
07:51 6.3 6.2 99 1016.2 1.6 NE 5.4 0.0 1.1
07:52 6.3 6.2 99 1016.3 1.6 NE 3.8 0.0 1.1
07:53 6.3 6.2 99 1016.2 2.2 NE 3.8 0.0 1.1
07:54 6.3 6.2 99 1016.1 2.2 NE 3.8 0.0 1.1
07:55 6.3 6.2 99 1016.2 2.2 NE 3.8 0.0 1.1
07:56 6.3 6.2 99 1016.2 1.6 NE 3.8 0.0 1.1
07:57 6.3 6.2 99 1016.2 1.6 NE 3.8 0.0 1.1
07:58 6.3 6.2 99 1016.2 2.2 NE 4.5 0.0 1.1
07:59 6.3 6.2 99 1016.1 3.1 NE 4.5 0.0 1.1
08:00 6.3 6.2 99 1016.1 2.2 NE 4.5 0.0 1.1
08:01 6.3 6.2 99 1016.3 2.2 NE 4.5 0.0 1.1
08:02 6.3 6.2 99 1016.2 2.2 NE 4.5 0.0 1.1
08:03 6.3 6.2 99 1016.1 2.2 NE 4.5 0.0 1.1
08:04 6.3 6.2 99 1016.2 2.2 NE 4.5 0.0 1.1
08:05 6.3 6.2 99 1016.3 2.2 NE 4.5 0.0 1.1
08:06 6.3 6.2 99 1016.4 2.2 NE 4.5 0.0 1.1
08:08 6.3 6.2 99 1016.3 2.2 NE 3.1 0.0 1.1
08:09 6.2 6.1 99 1016.3 2.2 SE 2.2 0.0 1.1
08:11 6.3 6.2 99 1016.6 2.2 E 3.8 0.0 1.1
08:12 6.2 6.1 99 1016.5 1.6 SE 3.8 0.0 1.1
08:13 6.2 6.1 99 1016.7 2.2 SE 3.8 0.0 1.1
08:15 6.3 6.2 99 1016.6 1.6 SE 3.8 0.0 1.1
08:16 6.3 6.2 99 1016.5 2.2 SE 3.8 0.0 1.1
08:17 6.2 6.1 99 1016.6 2.2 SE 3.8 0.0 1.1
08:18 6.2 6.1 99 1016.7 0.7 SE 3.8 0.0 1.1
08:19 6.3 6.2 99 1016.7 3.8 E 3.8 0.0 1.1
08:20 6.2 6.1 99 1016.7 1.6 E 3.8 0.0 1.1
08:21 6.2 6.1 99 1016.7 1.6 E 3.8 0.0 1.1
08:22 6.2 6.1 99 1016.7 0.7 E 3.8 0.0 1.1
08:23 6.2 6.1 99 1016.7 1.6 E 3.8 0.0 1.1
08:25 6.2 6.1 99 1016.7 3.1 E 3.8 0.0 1.1
08:26 6.2 6.1 99 1016.7 2.2 E 3.8 0.0 1.1
08:27 6.2 6.1 99 1016.7 2.2 E 3.8 0.0 1.1
08:28 6.2 6.1 99 1016.7 2.2 E 3.8 0.0 1.1
08:29 6.2 6.1 99 1016.7 0.7 E 3.8 0.0 1.1
08:30 6.2 6.1 99 1016.8 0.7 E 3.1 0.0 1.1
08:31 6.2 6.1 99 1016.8 0.7 E 3.1 0.0 1.1
08:32 6.2 6.1 99 1016.6 0.7 E 3.1 0.0 1.1
08:33 6.2 6.1 99 1016.9 0.7 E 3.1 0.0 1.1
08:34 6.2 6.1 99 1016.8 0.7 E 3.1 0.0 1.1
08:35 6.2 6.1 99 1016.6 0.7 E 3.1 0.0 1.1
08:36 6.2 6.1 99 1016.8 1.6 E 2.2 0.0 1.1
08:37 6.2 6.1 99 1016.8 1.6 E 2.2 0.0 1.1
08:38 6.2 6.1 99 1016.7 1.6 E 2.2 0.0 1.1
08:39 6.2 6.1 99 1016.9 0.7 E 1.6 0.0 1.1
08:40 6.2 6.1 99 1016.7 0.7 E 1.6 0.0 1.1
08:41 6.2 6.1 99 1016.9 0.7 E 1.6 0.0 1.1
08:42 6.2 6.1 99 1016.8 0.7 E 1.6 0.0 1.1
08:43 6.3 6.2 99 1016.9 0.7 E 1.6 0.0 1.1
08:44 6.2 6.1 99 1016.8 0.7 E 1.6 0.0 1.1
08:45 6.2 6.1 99 1016.8 1.6 E 1.6 0.0 1.1
08:46 6.3 6.2 99 1016.8 1.6 E 1.6 0.0 1.1
08:47 6.3 6.2 99 1016.8 1.6 E 1.6 0.0 1.1
08:48 6.2 6.1 99 1017.1 2.2 E 2.2 0.0 1.1
08:49 6.2 6.1 99 1016.8 2.2 E 2.2 0.0 1.1
08:50 6.2 6.1 99 1017.0 1.6 E 2.2 0.0 1.1
08:51 6.2 6.1 99 1016.8 1.6 E 2.2 0.0 1.1
08:52 6.2 6.1 99 1016.8 2.2 E 2.2 0.0 1.1
08:53 6.3 6.2 99 1016.7 1.6 E 2.2 0.0 1.1
08:54 6.2 6.1 99 1016.9 3.1 E 3.1 0.0 1.1
08:55 6.3 6.2 99 1016.8 2.2 E 3.1 0.0 1.1
08:56 6.3 6.2 99 1016.7 2.2 E 3.1 0.0 1.1
08:57 6.3 6.2 99 1016.7 1.6 E 3.1 0.0 1.1
08:58 6.3 6.2 99 1016.7 1.6 E 3.1 0.0 1.1
08:59 6.3 6.2 99 1016.9 1.6 E 3.1 0.0 1.1
09:01 6.3 6.2 99 1016.8 1.6 E 3.1 0.0 1.1
09:02 6.3 6.2 99 1016.8 1.6 E 3.1 0.0 1.1
09:03 6.3 6.2 99 1016.8 1.6 E 3.1 0.0 1.1
09:04 6.3 6.2 99 1016.9 1.6 E 3.1 0.0 1.1
09:05 6.3 6.2 99 1017.0 1.6 E 2.2 0.0 1.1
09:06 6.3 6.2 99 1016.9 3.8 E 3.8 0.0 1.1
09:07 6.3 6.2 99 1016.9 1.6 E 3.8 0.0 1.1
09:08 6.4 6.3 99 1016.8 3.1 E 3.8 0.0 1.1
09:09 6.4 6.3 99 1016.8 2.2 E 3.8 0.0 1.1
09:10 6.4 6.3 99 1016.8 2.2 E 3.8 0.0 1.1
09:11 6.4 6.3 99 1016.8 2.2 E 3.8 0.0 1.1
09:12 6.4 6.3 99 1016.8 1.6 E 3.8 0.0 1.1
09:13 6.5 6.4 99 1016.9 0.7 E 3.8 0.0 1.1
09:14 6.5 6.4 99 1017.1 2.2 E 3.8 0.0 1.1
09:15 6.5 6.4 99 1016.8 0.7 E 3.8 0.0 1.1
09:16 6.5 6.4 99 1016.9 2.2 E 3.8 0.0 1.1
09:17 6.5 6.4 99 1017.0 2.2 E 3.8 0.0 1.1
09:18 6.5 6.4 99 1017.0 2.2 E 3.8 0.0 1.1
09:19 6.5 6.4 99 1017.2 1.6 E 2.2 0.0 1.1
09:20 6.5 6.4 99 1017.1 0.7 E 2.2 0.0 1.1
09:21 6.5 6.4 99 1017.0 1.6 E 2.2 0.0 1.1
09:22 6.5 6.4 99 1017.0 1.6 E 2.2 0.0 1.1
09:23 6.6 6.5 99 1017.0 0.7 E 2.2 0.0 1.1
09:24 6.6 6.5 99 1017.1 2.2 E 2.2 0.0 1.1
09:25 6.6 6.5 99 1017.2 2.2 E 2.2 0.0 1.1
09:26 6.6 6.5 99 1017.1 0.7 E 2.2 0.0 1.1
09:28 6.6 6.5 99 1017.1 2.2 E 2.2 0.0 1.1
09:29 6.6 6.5 99 1017.1 2.2 NE 2.2 0.0 1.1
09:30 6.6 6.5 99 1017.1 1.6 NE 2.2 0.0 1.1
09:31 6.6 6.5 99 1017.2 0.7 NE 2.2 0.0 1.1
09:32 6.6 6.5 99 1017.1 3.1 E 3.1 0.0 1.1
09:33 6.6 6.5 99 1017.3 1.6 E 3.1 0.0 1.1
09:34 6.6 6.5 99 1017.2 5.4 SE 5.4 0.0 1.1
09:35 6.6 6.5 99 1017.3 3.8 SE 5.4 0.0 1.1
09:36 6.6 6.5 99 1017.4 3.1 SE 5.4 0.0 1.1
09:37 6.6 6.5 99 1017.3 1.6 SE 5.4 0.0 1.1
09:38 6.6 6.5 99 1017.4 2.2 SE 5.4 0.0 1.1
09:39 6.5 6.4 99 1017.4 3.8 SE 5.4 0.0 1.1
09:40 6.5 6.4 99 1017.4 3.8 SE 5.4 0.0 1.1
09:41 6.5 6.4 99 1017.4 2.2 SE 5.4 0.0 1.1
09:42 6.5 6.4 99 1017.4 3.8 SE 5.4 0.0 1.1
09:43 6.5 6.4 99 1017.4 2.2 SE 5.4 0.0 1.1
09:44 6.5 6.4 99 1017.4 2.2 SE 5.4 0.0 1.1
09:45 6.5 6.4 99 1017.3 3.1 SE 4.5 0.0 1.1
09:46 6.5 6.4 99 1017.4 2.2 SE 4.5 0.0 1.1
09:47 6.5 6.4 99 1017.4 3.8 SE 4.5 0.0 1.1
09:48 6.5 6.4 99 1017.4 2.2 SE 4.5 0.0 1.1
09:49 6.6 6.5 99 1017.2 3.1 SE 4.5 0.0 1.1
09:50 6.6 6.5 99 1017.3 3.1 E 4.5 0.0 1.1
09:51 6.6 6.5 99 1017.4 1.6 E 4.5 0.0 1.1
09:52 6.6 6.5 99 1017.3 2.2 E 3.8 0.0 1.1
09:53 6.6 6.5 99 1017.3 2.2 E 3.8 0.0 1.1
09:54 6.6 6.5 99 1017.4 1.6 E 3.8 0.0 1.1
09:55 6.7 6.6 99 1017.3 1.6 E 3.8 0.0 1.1
09:56 6.7 6.6 99 1017.4 1.6 E 3.8 0.0 1.1
09:57 6.7 6.6 99 1017.3 1.6 E 3.8 0.0 1.1
09:58 6.7 6.6 99 1017.2 3.1 E 3.1 0.0 1.1
09:59 6.8 6.7 99 1017.4 4.5 SE 4.5 0.0 1.1
10:00 6.8 6.7 99 1017.3 4.5 SE 4.5 0.0 1.1
10:01 6.8 6.7 99 1017.3 4.5 SE 4.5 0.0 1.1
10:03 6.8 6.7 99 1017.2 4.5 SE 4.5 0.0 1.1
10:04 6.8 6.7 99 1017.1 4.5 SE 4.5 0.0 1.1
10:05 6.8 6.7 99 1017.2 4.5 SE 4.5 0.0 1.1
10:06 7.0 6.9 99 1017.3 3.1 SE 4.5 0.0 1.1
10:07 7.1 7.0 99 1017.1 1.6 E 4.5 0.0 1.1
10:08 7.1 7.0 99 1017.2 2.2 E 4.5 0.0 1.1
10:10 7.1 7.0 99 1017.4 1.6 E 4.5 0.0 1.1
10:11 7.2 7.1 99 1017.3 3.1 E 4.5 0.0 1.1
10:13 7.2 7.1 99 1017.2 4.5 SE 4.5 0.0 1.1
10:14 7.3 7.2 99 1017.2 3.1 E 4.5 0.0 1.1
10:15 7.3 7.2 99 1017.2 3.1 E 4.5 0.0 1.1
10:16 7.3 7.2 99 1017.2 2.2 E 4.5 0.0 1.1
10:17 7.3 7.2 99 1017.2 6.9 SE 6.9 0.0 1.1
10:18 7.3 7.2 99 1017.1 3.1 E 6.9 0.0 1.1
10:19 7.3 7.2 99 1017.2 2.2 E 6.9 0.0 1.1
10:20 7.3 7.2 99 1017.2 3.1 E 6.9 0.0 1.1
10:21 7.3 7.2 99 1017.0 5.4 E 6.9 0.0 1.1
10:23 7.4 7.3 99 1017.2 6.0 NE 6.9 0.0 1.1
10:24 7.4 7.3 99 1017.0 6.0 E 6.9 0.0 1.1
10:25 7.4 7.3 99 1017.2 6.0 SE 6.9 0.0 1.1
10:26 7.4 7.3 99 1017.2 2.2 E 6.9 0.0 1.1
10:27 7.4 7.3 99 1017.2 4.5 NE 6.9 0.0 1.1
10:28 7.4 7.3 99 1017.2 3.8 SE 6.0 0.0 1.1
10:29 7.4 7.3 99 1017.2 3.8 SE 6.0 0.0 1.1
10:30 7.5 7.4 99 1017.2 4.5 SE 6.0 0.0 1.1
10:31 7.5 7.4 99 1017.2 3.8 SE 6.0 0.0 1.1
10:32 7.6 7.5 99 1017.2 5.4 SE 6.0 0.0 1.1
10:33 7.6 7.5 99 1017.3 6.0 SE 6.0 0.0 1.1
10:34 7.6 7.5 99 1017.2 4.5 SE 6.0 0.0 1.1
10:35 7.7 7.6 99 1017.2 3.8 SE 6.0 0.0 1.1
10:36 7.7 7.6 99 1017.1 3.8 SE 6.0 0.0 1.1
10:37 7.7 7.6 99 1017.1 5.4 SE 6.0 0.0 1.1
10:38 7.7 7.6 99 1017.1 6.0 E 6.0 0.0 1.1
10:39 7.7 7.6 99 1017.0 6.9 SE 6.9 0.0 1.1
10:40 7.8 7.7 99 1017.2 5.4 SE 6.9 0.0 1.1
10:41 7.8 7.7 99 1017.2 6.9 SE 6.9 0.0 1.1
10:42 7.8 7.7 99 1017.1 5.4 SE 6.9 0.0 1.1
10:44 7.8 7.7 99 1017.2 3.8 SE 6.9 0.0 1.1
10:45 7.8 7.7 99 1017.2 6.0 SE 6.9 0.0 1.1
10:46 7.8 7.7 99 1017.3 7.6 S 7.6 0.0 1.1
10:47 7.8 7.7 99 1017.2 5.4 E 7.6 0.0 1.1
10:48 7.9 7.8 99 1017.2 4.5 E 7.6 0.0 1.1
10:49 7.9 7.8 99 1017.2 4.5 S 7.6 0.0 1.1
10:50 7.9 7.8 99 1017.2 5.4 W 7.6 0.0 1.1
10:51 7.9 7.8 99 1017.2 5.4 SE 7.6 0.0 1.1
10:52 7.9 7.8 99 1017.2 6.9 E 7.6 0.0 1.1
10:53 7.9 7.8 99 1017.3 4.5 SE 7.6 0.0 1.1
10:54 8.0 7.9 99 1017.3 4.5 NE 7.6 0.0 1.1
10:55 8.0 7.9 99 1017.4 6.0 SE 7.6 0.0 1.1
10:56 8.0 7.9 99 1017.3 5.4 SE 7.6 0.0 1.1
10:57 8.0 7.9 99 1017.3 5.4 SE 7.6 0.0 1.1
10:58 8.0 7.9 99 1017.4 7.6 SE 7.6 0.0 1.1
10:59 8.1 8.0 99 1017.4 5.4 SE 7.6 0.0 1.1
11:00 8.1 8.0 99 1017.4 5.4 SE 7.6 0.0 1.1
11:01 8.2 8.1 99 1017.5 7.6 SE 7.6 0.0 1.1
11:02 8.2 8.1 99 1017.4 9.2 SE 9.2 0.0 1.1
11:03 8.2 8.1 99 1017.2 5.4 SE 9.2 0.0 1.1
11:04 8.2 8.1 99 1017.4 7.6 SE 9.2 0.0 1.1
11:05 8.2 8.1 99 1017.3 6.9 SE 9.2 0.0 1.1
11:06 8.2 8.1 99 1017.4 4.5 SE 9.2 0.0 1.1
11:07 8.3 8.2 99 1017.4 4.5 SE 9.2 0.0 1.1
11:08 8.3 8.2 99 1017.4 4.5 SE 9.2 0.0 1.1
11:10 8.4 8.3 99 1017.4 6.0 SE 9.2 0.0 1.1
11:11 8.4 8.3 99 1017.3 6.9 SE 9.2 0.0 1.1
11:12 8.4 8.3 99 1017.3 9.2 SE 9.2 0.0 1.1
11:13 8.4 8.3 99 1017.4 9.8 SE 9.8 0.0 1.1
11:14 8.4 8.3 99 1017.3 6.9 SE 9.8 0.0 1.1
11:15 8.3 8.2 99 1017.4 7.6 SE 9.8 0.0 1.1
11:16 8.3 8.2 99 1017.4 6.9 NE 9.8 0.0 1.1
11:17 8.2 8.1 99 1017.3 6.9 NE 9.8 0.0 1.1
11:18 8.2 8.1 99 1017.5 8.3 SE 9.8 0.0 1.1
11:19 8.1 8.0 99 1017.3 9.2 E 9.8 0.0 1.1
11:20 8.1 8.0 99 1017.4 6.0 SE 9.8 0.0 1.1
11:21 8.0 7.9 99 1017.4 5.4 SE 9.8 0.0 1.1
11:22 8.0 7.9 99 1017.4 5.4 SE 9.8 0.0 1.1
11:23 8.0 7.9 99 1017.4 4.5 SE 9.2 0.0 1.1
11:24 8.0 7.9 99 1017.4 5.4 SE 9.2 0.0 1.1
11:25 8.0 7.9 99 1017.3 4.5 SE 9.2 0.0 1.1
11:26 8.0 7.9 99 1017.5 4.5 SE 9.2 0.0 1.1
11:27 8.1 8.0 99 1017.3 4.5 E 9.2 0.0 1.1
11:28 8.3 8.2 99 1017.3 9.2 W 9.2 0.0 1.1
11:29 8.3 8.2 99 1017.2 6.9 E 9.2 0.0 1.1
11:30 8.3 8.2 99 1017.3 10.7 SE 10.7 0.0 1.1
11:31 8.5 8.4 99 1017.3 8.3 SE 10.7 0.0 1.1
11:32 8.5 8.4 99 1017.3 8.3 E 10.7 0.0 1.1
11:33 8.6 8.5 99 1017.3 4.5 SE 10.7 0.0 1.1
11:34 8.6 8.5 99 1017.3 9.8 SE 10.7 0.0 1.1
11:35 8.7 8.6 99 1017.2 8.3 S 10.7 0.0 1.1
11:36 8.7 8.6 99 1017.3 9.2 SE 10.7 0.0 1.1
11:37 8.7 8.6 99 1017.2 6.9 SE 10.7 0.0 1.1
11:38 8.7 8.6 99 1017.2 8.3 SE 10.7 0.0 1.1
11:39 8.8 8.7 99 1017.3 7.6 E 10.7 0.0 1.1
11:40 8.8 8.7 99 1017.2 6.9 SE 10.7 0.0 1.1
11:41 8.9 8.8 99 1017.1 9.8 SE 10.7 0.0 1.1
11:42 8.9 8.8 99 1017.2 9.2 SE 10.7 0.0 1.1
11:44 8.9 8.8 99 1017.1 7.6 SE 10.7 0.0 1.1
11:45 8.9 8.8 99 1017.1 7.6 SE 10.7 0.0 1.1
11:46 9.0 8.9 99 1017.1 6.0 SE 9.8 0.0 1.1
11:47 8.9 8.8 99 1017.1 7.6 SE 9.8 0.0 1.1
11:48 9.0 8.9 99 1017.2 6.9 SE 9.8 0.0 1.1
11:49 8.9 8.8 99 1017.1 7.6 SE 9.8 0.0 1.1
11:50 8.9 8.8 99 1017.0 6.9 SE 9.8 0.0 1.1
11:51 8.8 8.7 99 1017.0 6.0 SE 9.8 0.0 1.1
11:52 8.8 8.7 99 1017.1 7.6 SE 9.2 0.0 1.1
11:53 8.7 8.6 99 1017.0 5.4 SE 9.2 0.0 1.1
11:54 8.7 8.6 99 1016.9 6.9 SE 9.2 0.0 1.1
11:55 8.7 8.6 99 1017.0 5.4 SE 9.2 0.0 1.1
11:56 8.7 8.6 99 1017.2 6.9 SE 9.2 0.0 1.1
11:57 8.7 8.6 99 1017.3 5.4 SE 9.2 0.0 1.1
11:58 8.8 8.7 99 1017.1 4.5 E 9.2 0.0 1.1
11:59 8.8 8.7 99 1017.1 4.5 SE 7.6 0.0 1.1
12:00 8.8 8.7 99 1017.1 5.4 SE 7.6 0.0 1.1
12:01 8.9 8.8 99 1017.1 6.0 SE 7.6 0.0 1.1
12:02 8.9 8.8 99 1017.1 8.3 E 8.3 0.0 1.1
12:03 9.0 8.9 99 1017.2 5.4 E 8.3 0.0 1.1
12:04 9.0 8.9 99 1017.0 8.3 SE 8.3 0.0 1.1
12:05 9.1 9.0 99 1017.0 6.9 SE 8.3 0.0 1.1
12:06 9.1 9.0 99 1016.8 6.0 E 8.3 0.0 1.1
12:08 9.1 9.0 99 1016.9 6.9 E 8.3 0.0 1.1
12:09 9.1 9.0 99 1016.7 6.9 SE 9.8 0.0 1.1
12:11 9.1 9.0 99 1016.8 3.8 E 9.8 0.0 1.1
12:12 9.2 9.1 99 1016.9 8.3 E 9.8 0.0 1.1
12:14 9.2 9.1 99 1016.8 7.6 S 9.8 0.0 1.1
12:15 9.2 9.1 99 1016.9 7.6 E 9.8 0.0 1.1
12:16 9.2 9.1 99 1016.9 9.2 SE 9.8 0.0 1.1
12:17 9.2 9.1 99 1017.0 6.9 SE 9.8 0.0 1.1
12:18 9.1 9.0 99 1016.9 5.4 SE 9.8 0.0 1.1
12:19 9.1 9.0 99 1016.8 8.3 SE 9.2 0.0 1.1
12:20 9.1 9.0 99 1016.9 9.2 SE 9.2 0.0 1.1
12:21 9.0 8.9 99 1016.7 8.3 NE 9.2 0.0 1.1
12:22 9.0 8.9 99 1016.8 4.5 SE 9.2 0.0 1.1
12:23 9.0 8.9 99 1016.7 4.5 E 9.2 0.0 1.1
12:24 9.0 8.9 99 1016.7 6.0 SE 9.2 0.0 1.1
12:26 8.9 8.8 99 1016.6 6.0 SE 9.2 0.0 1.1
12:27 8.9 8.8 99 1016.6 6.9 SE 9.2 0.0 1.1
12:28 8.9 8.8 99 1016.6 7.6 SE 9.2 0.0 1.1
12:29 8.8 8.7 99 1016.6 10.7 SE 10.7 0.0 1.1
12:30 8.8 8.7 99 1016.7 8.3 SE 10.7 0.0 1.1
12:31 8.7 8.6 99 1016.6 9.2 SE 10.7 0.0 1.1
12:32 8.7 8.6 99 1016.5 8.3 S 10.7 0.0 1.1
12:33 8.7 8.6 99 1016.6 7.6 SE 10.7 0.0 1.1
12:34 8.6 8.5 99 1016.6 7.6 SE 10.7 0.0 1.1
12:35 8.6 8.5 99 1016.7 7.6 SE 10.7 0.0 1.1
12:36 8.6 8.5 99 1016.6 6.0 SE 10.7 0.0 1.1
12:37 8.7 8.6 99 1016.7 9.2 SE 10.7 0.0 1.1
12:38 8.6 8.5 99 1016.6 8.3 SE 10.7 0.0 1.1
12:39 8.6 8.5 99 1016.4 6.9 E 10.7 0.0 1.1
12:40 8.6 8.5 99 1016.5 6.9 E 9.2 0.0 1.1
12:41 8.5 8.4 99 1016.5 4.5 SE 9.2 0.0 1.1
12:42 8.5 8.4 99 1016.6 6.0 E 9.2 0.0 1.1
12:43 8.6 8.5 99 1016.7 5.4 SE 9.2 0.0 1.1
12:44 8.5 8.4 99 1016.6 8.3 E 9.2 0.0 1.1
12:45 8.4 8.3 99 1016.6 5.4 SE 9.2 0.0 1.1
12:46 8.4 8.3 99 1016.7 7.6 SE 9.2 0.0 1.1
12:47 8.4 8.3 99 1016.7 8.3 SE 9.2 0.0 1.1
12:48 8.4 8.3 99 1016.7 6.9 SE 8.3 0.0 1.1
12:49 8.4 8.3 99 1016.8 6.0 SE 8.3 0.0 1.1
12:50 8.3 8.2 99 1016.7 6.9 S 8.3 0.0 1.1
12:51 8.3 8.2 99 1016.7 9.2 SE 9.2 0.0 1.1
12:52 8.3 8.2 99 1016.7 7.6 SE 9.2 0.0 1.1
12:53 8.3 8.2 99 1016.7 8.3 S 9.2 0.0 1.1
12:54 8.3 8.2 99 1016.8 6.0 SE 9.2 0.0 1.1
12:56 8.2 8.1 99 1016.8 6.0 SE 9.2 0.0 1.1
12:57 8.2 8.1 99 1016.7 7.6 SE 9.2 0.0 1.1
12:58 8.1 8.0 99 1016.7 8.3 SE 9.2 0.0 1.1
12:59 8.2 8.1 99 1017.0 6.0 S 9.2 0.0 1.1
13:00 8.1 8.0 99 1016.8 4.5 SE 9.2 0.0 1.1
13:01 8.1 8.0 99 1016.7 4.5 SE 9.2 0.0 1.1
13:02 8.1 8.0 99 1016.5 4.5 SE 8.3 0.0 1.1
13:03 8.1 8.0 99 1016.7 4.5 SE 8.3 0.0 1.1
13:04 8.1 8.0 99 1016.6 8.3 SE 8.3 0.0 1.1
13:05 8.1 8.0 99 1016.6 6.9 SE 8.3 0.0 1.1
13:06 8.1 8.0 99 1016.7 7.6 SE 8.3 0.0 1.1
13:07 8.0 7.9 99 1016.7 6.0 SE 8.3 0.0 1.1
13:08 8.0 7.9 99 1016.7 6.0 S 8.3 0.0 1.1
13:09 8.0 7.9 99 1016.7 7.6 SE 8.3 0.0 1.1
13:10 8.0 7.9 99 1016.6 6.0 SE 8.3 0.0 1.1
13:11 8.0 7.9 99 1016.7 6.9 SE 8.3 0.0 1.1
13:12 8.0 7.9 99 1016.6 7.6 SE 8.3 0.0 1.1
13:13 8.0 7.9 99 1016.7 6.0 SE 8.3 0.0 1.1
13:14 8.0 7.9 99 1016.6 5.4 SE 8.3 0.0 1.1
13:15 8.0 7.9 99 1016.6 6.9 S 7.6 0.0 1.1
13:16 7.9 7.8 99 1016.7 6.9 SE 7.6 0.0 1.1
13:17 8.0 7.9 99 1016.5 6.9 SE 7.6 0.0 1.1
13:18 7.9 7.8 99 1016.6 6.9 S 9.2 0.0 1.1
13:19 7.9 7.8 99 1016.5 7.6 SE 9.2 0.0 1.1
13:20 7.9 7.8 99 1016.6 6.0 SE 9.2 0.0 1.1
13:22 7.9 7.8 99 1016.5 6.0 E 9.2 0.0 1.1
13:23 7.9 7.8 99 1016.5 6.9 S 9.2 0.0 1.1
13:24 7.9 7.8 99 1016.5 6.0 SE 9.2 0.0 1.1
13:25 7.9 7.8 99 1016.4 6.9 SE 9.2 0.0 1.1
13:26 7.9 7.8 99 1016.6 6.0 SE 9.2 0.0 1.1
13:27 7.9 7.8 99 1016.6 3.8 SE 9.2 0.0 1.1
13:28 7.9 7.8 99 1016.5 3.1 SE 9.2 0.0 1.1
13:29 7.9 7.8 99 1016.6 5.4 SE 7.6 0.0 1.1
13:30 7.9 7.8 99 1016.5 4.5 SE 6.9 0.0 1.1
13:31 7.9 7.8 99 1016.5 5.4 SE 6.9 0.0 1.1
13:32 7.9 7.8 99 1016.4 6.0 SE 6.9 0.0 1.1
13:33 7.9 7.8 99 1016.5 9.2 S 10.7 0.0 1.1
13:34 7.9 7.8 99 1016.5 8.3 S 10.7 0.0 1.1
13:35 7.9 7.8 99 1016.3 8.3 S 10.7 0.0 1.1
13:36 7.9 7.8 99 1016.3 5.4 SE 10.7 0.0 1.1
13:37 7.9 7.8 99 1016.4 7.6 SE 10.7 0.0 1.1
13:38 7.8 7.7 99 1016.4 6.9 SE 10.7 0.0 1.1
13:39 7.9 7.8 99 1016.4 5.4 SE 10.7 0.0 1.1
13:40 7.8 7.7 99 1016.5 6.9 S 10.7 0.0 1.1
13:41 7.8 7.7 99 1016.5 5.4 S 10.7 0.0 1.1
13:42 7.8 7.7 99 1016.6 6.0 SE 9.2 0.0 1.1
13:43 7.8 7.7 99 1016.7 6.0 SE 8.3 0.0 1.1
13:44 7.8 7.7 99 1016.6 7.6 SE 8.3 0.0 1.1
13:45 7.8 7.7 99 1016.6 6.9 SE 7.6 0.0 1.1
13:46 7.8 7.7 99 1016.6 6.9 S 7.6 0.0 1.1
13:47 7.8 7.7 99 1016.6 6.0 S 7.6 0.0 1.1
13:48 7.8 7.7 99 1016.6 5.4 S 7.6 0.0 1.1
13:49 7.8 7.7 99 1016.7 6.0 SE 7.6 0.0 1.1
13:50 7.8 7.7 99 1016.6 6.0 SE 7.6 0.0 1.1
13:51 7.8 7.7 99 1016.7 6.0 SE 7.6 0.0 1.1
13:52 7.8 7.7 99 1016.6 5.4 SE 7.6 0.0 1.1
13:53 7.8 7.7 99 1016.7 4.5 SE 7.6 0.0 1.1
13:54 7.8 7.7 99 1016.6 5.4 SE 6.9 0.0 1.1
13:55 7.9 7.8 99 1016.6 5.4 S 6.9 0.0 1.1
13:56 7.8 7.7 99 1016.4 6.0 SE 6.9 0.0 1.1
13:58 7.8 7.7 99 1016.5 4.5 SE 7.6 0.0 1.1
13:59 7.8 7.7 99 1016.5 4.5 SE 7.6 0.0 1.1
14:00 7.8 7.7 99 1016.7 8.3 SE 8.3 0.0 1.1
14:01 7.8 7.7 99 1016.5 7.6 SE 8.3 0.0 1.1
14:02 7.8 7.7 99 1016.5 6.0 SE 8.3 0.0 1.1
14:03 7.9 7.8 99 1016.5 5.4 SE 8.3 0.0 1.1
14:04 7.8 7.7 99 1016.4 6.9 SE 8.3 0.0 1.1
14:05 7.9 7.8 99 1016.5 4.5 SE 8.3 0.0 1.1
14:06 7.8 7.7 99 1016.4 6.0 SE 8.3 0.0 1.1
14:07 7.8 7.7 99 1016.5 6.9 SE 8.3 0.0 1.1
14:08 7.8 7.7 99 1016.6 8.3 S 8.3 0.0 1.1
14:10 7.8 7.7 99 1016.3 5.4 SE 8.3 0.0 1.1
14:11 7.8 7.7 99 1016.5 7.6 S 8.3 0.0 1.1
14:13 7.8 7.7 99 1016.5 10.7 SE 10.7 0.0 1.1
14:15 7.8 7.7 99 1016.4 6.9 WSW 10.7 0.0 1.1
14:16 7.7 7.6 99 1016.4 10.7 SE 10.7 0.0 1.1
14:17 7.7 7.6 99 1016.4 9.8 S 10.7 0.0 1.1
14:18 7.7 7.6 99 1016.4 9.2 E 10.7 0.0 1.1
14:19 7.7 7.6 99 1016.3 6.9 SE 10.7 0.0 1.1
14:20 7.7 7.6 99 1016.3 7.6 SE 10.7 0.0 1.1
14:21 7.7 7.6 99 1016.2 8.3 SE 10.7 0.0 1.1
14:22 7.7 7.6 99 1016.3 6.9 SE 10.7 0.0 1.1
14:23 7.7 7.6 99 1016.3 9.8 SE 10.7 0.0 1.1
14:24 7.7 7.6 99 1016.3 7.6 SE 10.7 0.0 1.1
14:25 7.6 7.5 99 1016.3 8.3 SE 10.7 0.0 1.1
14:26 7.6 7.5 99 1016.3 7.6 SE 9.8 0.0 1.1
14:27 7.6 7.5 99 1016.2 9.2 SE 9.8 0.0 1.1
14:28 7.6 7.5 99 1016.2 9.2 E 9.8 0.0 1.1
14:29 7.6 7.5 99 1016.2 6.9 SE 9.8 0.0 1.1
14:30 7.6 7.5 99 1016.3 6.9 E 9.8 0.0 1.1
14:31 7.6 7.5 99 1016.4 6.9 SE 9.8 0.0 1.1
14:32 7.6 7.5 99 1016.3 6.0 SE 9.8 0.0 1.1
14:33 7.6 7.5 99 1016.3 6.9 SE 9.2 0.0 1.1
14:34 7.6 7.5 99 1016.1 8.3 SE 9.2 0.0 1.1
14:35 7.6 7.5 99 1016.3 6.0 SE 9.2 0.0 1.1
14:36 7.6 7.5 99 1016.4 6.9 SE 9.2 0.0 1.1
14:37 7.6 7.5 99 1016.3 8.3 SE 9.2 0.0 1.1
14:38 7.6 7.5 99 1016.3 7.6 S 9.2 0.0 1.1
14:39 7.6 7.5 99 1016.4 7.6 S 9.2 0.0 1.1
14:40 7.6 7.5 99 1016.3 6.9 S 9.2 0.0 1.1
14:41 7.6 7.5 99 1016.3 8.3 SE 9.2 0.0 1.1
14:42 7.6 7.5 99 1016.3 7.6 SE 9.2 0.0 1.1
14:43 7.6 7.5 99 1016.3 8.3 SE 9.2 0.0 1.1
14:44 7.6 7.5 99 1016.1 8.3 SE 9.2 0.0 1.1
14:45 7.5 7.4 99 1016.2 7.6 SE 9.2 0.0 1.1
14:47 7.6 7.5 99 1016.3 6.0 SE 9.2 0.0 1.1
14:48 7.5 7.4 99 1016.3 6.9 SE 9.2 0.0 1.1
14:49 7.5 7.4 99 1016.2 8.3 E 8.3 0.0 1.1
14:50 7.5 7.4 99 1016.2 9.2 SE 9.2 0.0 1.1
14:51 7.5 7.4 99 1016.2 9.2 SE 9.2 0.0 1.1
14:52 7.5 7.4 99 1016.2 9.8 SE 9.8 0.0 1.1
14:53 7.5 7.4 99 1016.3 11.4 SE 11.4 0.0 1.1
14:54 7.5 7.4 99 1016.2 9.2 SE 11.4 0.0 1.1
14:55 7.5 7.4 99 1016.4 8.3 SE 11.4 0.0 1.1
14:56 7.5 7.4 99 1016.2 8.3 S 11.4 0.0 1.1
14:57 7.5 7.4 99 1016.2 11.4 SE 11.4 0.0 1.1
14:58 7.4 7.3 99 1016.2 7.6 SE 11.4 0.0 1.1
14:59 7.4 7.3 99 1016.3 6.9 SE 11.4 0.0 1.1
15:00 7.5 7.4 99 1016.3 8.3 SE 11.4 0.0 1.1
15:01 7.5 7.4 99 1016.2 8.3 SE 11.4 0.0 1.1
15:02 7.5 7.4 99 1016.2 8.3 SE 11.4 0.0 1.1
15:03 7.5 7.4 99 1016.2 8.3 SE 11.4 0.0 1.1
15:04 7.5 7.4 99 1016.4 8.3 SE 11.4 0.0 1.1
15:05 7.4 7.3 99 1016.0 5.4 SE 11.4 0.0 1.1
15:06 7.5 7.4 99 1016.1 7.6 SE 11.4 0.0 1.1
15:07 7.4 7.3 99 1016.0 9.8 SE 9.8 0.0 1.1
15:08 7.5 7.4 99 1015.9 6.9 SE 9.8 0.0 1.1
15:09 7.5 7.4 99 1015.9 6.9 SE 9.8 0.0 1.1
15:10 7.5 7.4 99 1015.9 5.4 SE 9.8 0.0 1.1
15:11 7.5 7.4 99 1015.8 6.0 SE 9.8 0.0 1.1
15:12 7.5 7.4 99 1015.9 5.4 SE 9.8 0.0 1.1
15:13 7.4 7.3 99 1015.8 6.0 SE 9.8 0.0 1.1
15:14 7.4 7.3 99 1015.8 8.3 SE 9.8 0.0 1.1
15:15 7.5 7.4 99 1015.8 8.3 SE 9.8 0.0 1.1
15:17 7.4 7.3 99 1015.7 9.2 SE 9.8 0.0 1.1
15:18 7.4 7.3 99 1015.8 9.2 SE 9.8 0.0 1.1
15:19 7.4 7.3 99 1015.9 7.6 SE 9.8 0.0 1.1
15:20 7.4 7.3 99 1015.9 6.9 SE 9.8 0.0 1.1
15:21 7.5 7.4 99 1015.8 6.0 SE 9.8 0.0 1.1
15:22 7.4 7.3 99 1015.9 8.3 SE 9.8 0.0 1.1
15:23 7.4 7.3 99 1015.8 6.9 SE 9.8 0.0 1.1
15:24 7.4 7.3 99 1015.9 7.6 SE 9.8 0.0 1.1
15:25 7.4 7.3 99 1015.9 6.9 SE 9.8 0.0 1.1
15:26 7.4 7.3 99 1015.9 5.4 SE 9.8 0.0 1.1
15:27 7.4 7.3 99 1015.7 9.2 SE 9.2 0.0 1.1
15:28 7.4 7.3 99 1015.7 6.0 SE 9.2 0.0 1.1
15:29 7.4 7.3 99 1015.8 7.6 S 9.2 0.0 1.1
15:30 7.4 7.3 99 1015.7 10.7 SE 10.7 0.0 1.1
15:31 7.4 7.3 99 1015.8 9.2 S 10.7 0.0 1.1
15:32 7.4 7.3 99 1015.7 6.9 S 10.7 0.0 1.1
15:33 7.4 7.3 99 1015.7 4.5 SE 10.7 0.0 1.1
15:34 7.4 7.3 99 1015.8 6.0 SE 10.7 0.0 1.1
15:35 7.4 7.3 99 1015.6 5.4 SE 10.7 0.0 1.1
15:36 7.4 7.3 99 1015.7 6.0 SE 10.7 0.0 1.1
15:37 7.4 7.3 99 1015.6 9.8 SE 10.7 0.0 1.1
15:38 7.4 7.3 99 1015.7 8.3 SE 10.7 0.0 1.1
15:39 7.4 7.3 99 1015.7 6.9 SE 10.7 0.0 1.1
15:40 7.4 7.3 99 1015.7 7.6 SE 9.8 0.0 1.1
15:41 7.4 7.3 99 1015.7 8.3 SE 9.8 0.0 1.1
15:42 7.4 7.3 99 1015.7 10.7 SE 10.7 0.0 1.1
15:43 7.4 7.3 99 1015.7 10.7 S 10.7 0.0 1.1
15:44 7.4 7.3 99 1015.7 6.0 SE 10.7 0.0 1.1
15:45 7.3 7.2 99 1015.8 9.2 SE 10.7 0.0 1.1
15:46 7.3 7.2 99 1015.7 7.6 SE 10.7 0.0 1.1
15:47 7.3 7.2 99 1015.8 6.9 SE 10.7 0.0 1.1
15:48 7.3 7.2 99 1015.7 7.6 SE 10.7 0.0 1.1
15:49 7.3 7.2 99 1015.7 7.6 SE 10.7 0.0 1.1
15:51 7.3 7.2 99 1015.7 7.6 SE 10.7 0.0 1.1
15:52 7.3 7.2 99 1015.7 7.6 SE 10.7 0.0 1.1
15:53 7.3 7.2 99 1015.7 7.6 S 10.7 0.0 1.1
15:54 7.3 7.2 99 1015.8 6.0 SE 9.2 0.0 1.1
15:55 7.3 7.2 99 1015.8 7.6 SE 9.2 0.0 1.1
15:56 7.3 7.2 99 1015.9 6.0 SE 9.2 0.0 1.1
15:57 7.3 7.2 99 1015.7 7.6 SE 9.2 0.0 1.1
15:58 7.3 7.2 99 1015.8 6.9 SE 9.2 0.0 1.1
15:59 7.3 7.2 99 1015.7 6.0 SE 9.2 0.0 1.1
16:00 7.3 7.2 99 1015.7 6.0 SE 9.2 0.0 1.1
16:01 7.3 7.2 99 1015.7 6.0 SE 9.2 0.0 1.1
16:02 7.3 7.2 99 1015.8 6.0 SE 7.6 0.0 1.1
16:03 7.3 7.2 99 1015.7 6.0 SE 7.6 0.0 1.1
16:04 7.3 7.2 99 1015.9 6.0 SE 7.6 0.0 1.1
16:06 7.2 7.1 99 1015.7 8.3 SE 8.3 0.0 1.1
16:07 7.2 7.1 99 1015.8 8.3 S 8.3 0.0 1.1
16:08 7.2 7.1 99 1015.8 8.3 S 9.2 0.0 1.1
16:10 7.2 7.1 99 1015.7 6.9 S 9.8 0.0 1.1
16:11 7.2 7.1 99 1015.8 7.6 SE 9.8 0.0 1.1
16:13 7.2 7.1 99 1015.8 6.0 SE 9.8 0.0 1.1
16:14 7.2 7.1 99 1015.8 6.9 S 9.8 0.0 1.1
16:16 7.1 7.0 99 1016.0 6.0 S 9.8 0.0 1.1
16:17 7.1 7.0 99 1015.8 6.0 SE 9.8 0.0 1.1
16:18 7.1 7.0 99 1015.9 6.0 S 9.8 0.0 1.1
16:19 7.1 7.0 99 1015.7 6.9 S 7.6 0.0 1.1
16:20 7.1 7.0 99 1015.9 6.9 SE 7.6 0.0 1.1
16:21 7.1 7.0 99 1015.8 8.3 SE 8.3 0.0 1.1
16:22 7.1 7.0 99 1015.8 6.9 S 8.3 0.0 1.1
16:23 7.1 7.0 99 1015.7 5.4 S 8.3 0.0 1.1
16:24 7.1 7.0 99 1015.6 9.2 SE 9.2 0.0 1.1
16:26 7.0 6.9 99 1015.8 7.6 SE 9.2 0.0 1.1
16:27 7.0 6.9 99 1015.7 7.6 S 9.2 0.0 1.1
16:28 7.0 6.9 99 1015.7 6.9 S 9.2 0.0 1.1
16:29 7.0 6.9 99 1015.7 6.9 S 9.2 0.0 1.1
16:30 7.0 6.9 99 1015.6 8.3 S 9.2 0.0 1.1
16:31 6.9 6.8 99 1015.7 6.9 SE 9.2 0.0 1.1
16:32 6.9 6.8 99 1015.6 6.0 SE 9.2 0.0 1.1
16:33 6.9 6.8 99 1015.7 6.9 SE 9.2 0.0 1.1
16:34 6.9 6.8 99 1015.7 6.9 SE 9.2 0.0 1.1
16:35 6.9 6.8 99 1015.7 6.0 SE 8.3 0.0 1.1
16:36 6.9 6.8 99 1015.9 5.4 NW 8.3 0.0 1.1
16:37 6.8 6.7 99 1015.8 7.6 SE 8.3 0.0 1.1
16:38 6.8 6.7 99 1015.8 6.9 SE 8.3 0.0 1.1
16:39 6.8 6.7 99 1015.7 5.4 S 8.3 0.0 1.1
16:40 6.7 6.6 99 1015.7 6.9 S 8.3 0.0 1.1
16:41 6.7 6.6 99 1015.8 8.3 SE 8.3 0.0 1.1
16:42 6.7 6.6 99 1015.9 6.9 SE 8.3 0.0 1.1
16:43 6.7 6.6 99 1015.8 6.9 SE 8.3 0.0 1.1
16:44 6.7 6.6 99 1015.8 6.9 SE 8.3 0.0 1.1
16:45 6.7 6.6 99 1015.7 7.6 SE 8.3 0.0 1.1
16:46 6.7 6.6 99 1015.8 5.4 SE 8.3 0.0 1.1
16:47 6.7 6.6 99 1015.9 8.3 S 8.3 0.0 1.1
16:48 6.7 6.6 99 1015.7 6.0 S 8.3 0.0 1.1
16:49 6.7 6.6 99 1015.9 7.6 SE 8.3 0.0 1.1
16:50 6.7 6.6 99 1015.7 6.0 S 8.3 0.0 1.1
16:51 6.7 6.6 99 1015.7 5.4 W 8.3 0.0 1.1
16:52 6.7 6.6 99 1015.7 5.4 SE 8.3 0.0 1.1
16:53 6.7 6.6 99 1015.7 9.2 S 9.2 0.0 1.1
16:55 6.7 6.6 99 1015.7 6.9 S 9.2 0.0 1.1
16:56 6.7 6.6 99 1015.7 5.4 S 9.2 0.0 1.1
16:57 6.7 6.6 99 1015.7 6.9 S 9.2 0.0 1.1
16:58 6.7 6.6 99 1015.8 6.0 S 9.2 0.0 1.1
16:59 6.7 6.6 99 1015.7 5.4 S 9.2 0.0 1.1
17:00 6.8 6.7 99 1015.6 6.0 S 9.2 0.0 1.1
17:01 6.8 6.7 99 1015.6 6.0 S 9.2 0.0 1.1
17:02 6.8 6.7 99 1015.6 6.0 S 9.2 0.0 1.1
17:03 6.8 6.7 99 1015.7 6.0 S 9.2 0.0 1.1
17:04 6.8 6.7 99 1015.7 6.0 S 6.9 0.0 1.1
17:05 6.8 6.7 99 1015.7 8.3 SE 8.3 0.0 1.1
17:06 6.8 6.7 99 1015.7 9.8 W 9.8 0.0 1.1
17:07 6.8 6.7 99 1015.7 7.6 SW 9.8 0.0 1.1
17:08 6.8 6.7 99 1015.7 7.6 SE 9.8 0.0 1.1
17:09 6.8 6.7 99 1015.7 7.6 SE 9.8 0.0 1.1
17:10 6.8 6.7 99 1015.6 6.0 S 9.8 0.0 1.1
17:11 6.8 6.7 99 1015.7 5.4 S 9.8 0.0 1.1
17:12 6.8 6.7 99 1015.6 5.4 SE 9.8 0.0 1.1
17:13 6.8 6.7 99 1015.7 8.3 S 9.8 0.0 1.1
17:14 6.8 6.7 99 1015.8 5.4 S 9.8 0.0 1.1
17:15 6.8 6.7 99 1015.7 8.3 SE 9.8 0.0 1.1
17:16 6.8 6.7 99 1015.8 6.9 SE 9.8 0.0 1.1
17:17 6.8 6.7 99 1015.7 7.6 SE 8.3 0.0 1.1
17:18 6.8 6.7 99 1015.5 7.6 SE 8.3 0.0 1.1
17:20 6.8 6.7 99 1015.6 6.9 SE 8.3 0.0 1.1
17:21 6.7 6.6 99 1015.7 7.6 SE 8.3 0.0 1.1
17:22 6.7 6.6 99 1015.6 7.6 SE 8.3 0.0 1.1
17:23 6.7 6.6 99 1015.7 6.9 SE 8.3 0.0 1.1
17:24 6.7 6.6 99 1015.6 6.0 SE 8.3 0.0 1.1
17:25 6.7 6.6 99 1015.6 4.5 SE 8.3 0.0 1.1
17:26 6.7 6.6 99 1015.6 6.0 SE 8.3 0.0 1.1
17:27 6.7 6.6 99 1015.7 5.4 SE 8.3 0.0 1.1
17:28 6.7 6.6 99 1015.6 5.4 S 8.3 0.0 1.1
17:29 6.6 6.5 99 1015.5 4.5 N 7.6 0.0 1.1
17:30 6.6 6.5 99 1015.5 6.9 SE 7.6 0.0 1.1
17:31 6.6 6.5 99 1015.5 5.4 SE 7.6 0.0 1.1
17:32 6.6 6.5 99 1015.5 7.6 SE 7.6 0.0 1.1
17:33 6.6 6.5 99 1015.6 5.4 SE 7.6 0.0 1.1
17:34 6.6 6.5 99 1015.4 6.0 E 7.6 0.0 1.1
17:35 6.6 6.5 99 1015.5 7.6 SE 7.6 0.0 1.1
17:36 6.5 6.4 99 1015.3 8.3 SE 8.3 0.0 1.1
17:37 6.6 6.5 99 1015.5 6.9 SE 8.3 0.0 1.1
17:38 6.5 6.4 99 1015.3 7.6 SE 8.3 0.0 1.1
17:39 6.5 6.4 99 1015.3 5.4 SW 8.3 0.0 1.1
17:41 6.5 6.4 99 1015.4 5.4 SE 8.3 0.0 1.1
17:42 6.5 6.4 99 1015.4 6.0 SE 8.3 0.0 1.1
17:43 6.4 6.3 99 1015.4 5.4 SE 8.3 0.0 1.1
17:44 6.5 6.4 99 1015.6 6.9 S 8.3 0.0 1.1
17:45 6.4 6.3 99 1015.4 5.4 S 8.3 0.0 1.1
17:46 6.4 6.3 99 1015.5 5.4 SE 7.6 0.0 1.1
17:47 6.4 6.3 99 1015.5 5.4 SE 7.6 0.0 1.1
17:48 6.4 6.3 99 1015.6 5.4 SE 7.6 0.0 1.1
17:49 6.4 6.3 99 1015.4 5.4 SE 6.9 0.0 1.1
17:51 6.4 6.3 99 1015.6 5.4 SE 6.9 0.0 1.1
17:52 6.4 6.3 99 1015.6 5.4 SE 6.9 0.0 1.1
17:54 6.3 6.2 99 1015.5 5.4 SE 6.9 0.0 1.1
17:55 6.3 6.2 99 1015.5 6.0 SE 6.9 0.0 1.1
17:57 6.3 6.2 99 1015.4 5.4 SE 6.9 0.0 1.1
17:58 6.3 6.2 99 1015.5 6.9 E 6.9 0.0 1.1
17:59 6.3 6.2 99 1015.4 5.4 SE 6.9 0.0 1.1
18:00 6.2 6.1 99 1015.4 6.9 SE 6.9 0.0 1.1
18:01 6.2 6.1 99 1015.3 6.9 SE 6.9 0.0 1.1
18:02 6.2 6.1 99 1015.4 6.9 SE 6.9 0.0 1.1
18:04 6.2 6.1 99 1015.2 6.9 SE 6.9 0.0 1.1
18:05 6.2 6.1 99 1015.4 6.0 W 6.9 0.0 1.1
18:06 6.2 6.1 99 1015.4 6.9 SE 6.9 0.0 1.1
18:07 6.2 6.1 99 1015.3 5.4 SE 6.9 0.0 1.1
18:08 6.2 6.1 99 1015.5 5.4 S 6.9 0.0 1.1
18:10 6.1 6.0 99 1015.5 4.5 SE 6.9 0.0 1.1
18:12 6.1 6.0 99 1015.5 6.9 SE 6.9 0.0 1.1
18:14 6.0 5.9 99 1015.3 6.9 SE 6.9 0.0 1.1
18:15 6.1 6.0 99 1015.4 5.4 SE 6.9 0.0 1.1
18:17 6.0 5.9 99 1015.4 5.4 SE 6.9 0.0 1.1
18:19 6.0 5.9 99 1015.4 6.9 SE 6.9 0.0 1.1
18:21 6.0 5.9 99 1015.6 6.0 S 6.9 0.0 1.1
18:22 6.0 5.9 99 1015.5 5.4 SE 6.9 0.0 1.1
18:23 6.0 5.9 99 1015.5 6.9 SW 6.9 0.0 1.1
18:25 6.0 5.9 99 1015.6 6.9 S 8.3 0.0 1.1
18:26 6.1 6.0 99 1015.4 6.0 S 8.3 0.0 1.1
18:27 6.0 5.9 99 1015.6 7.6 S 8.3 0.0 1.1
18:28 6.1 6.0 99 1015.5 7.6 S 8.3 0.0 1.1
18:30 6.1 6.0 99 1015.5 8.3 S 8.3 0.0 1.1
18:31 6.2 6.1 99 1015.5 7.6 S 8.3 0.0 1.1
18:32 6.2 6.1 99 1015.5 6.9 S 8.3 0.0 1.1
18:34 6.3 6.2 99 1015.5 10.7 S 10.7 0.0 1.1
18:35 6.3 6.2 99 1015.4 6.0 SE 10.7 0.0 1.1
18:36 6.3 6.2 99 1015.4 8.3 S 10.7 0.0 1.1
18:37 6.4 6.3 99 1015.2 10.7 SE 10.7 0.0 1.1
18:38 6.5 6.4 99 1015.4 6.9 S 10.7 0.0 1.1
18:39 6.5 6.4 99 1015.5 8.3 SE 10.7 0.0 1.1
18:41 6.5 6.4 99 1015.4 9.2 W 10.7 0.0 1.1
18:42 6.6 6.5 99 1015.4 6.0 S 10.7 0.0 1.1
18:43 6.6 6.5 99 1015.5 6.9 S 10.7 0.0 1.1
18:44 6.6 6.5 99 1015.5 7.6 S 10.7 0.0 1.1
18:45 6.7 6.6 99 1015.3 7.6 S 10.7 0.0 1.1
18:46 6.7 6.6 99 1015.5 8.3 S 10.7 0.0 1.1
18:47 6.7 6.6 99 1015.4 6.0 S 9.8 0.0 1.1
18:48 6.8 6.7 99 1015.3 7.6 S 9.8 0.0 1.1
18:49 6.8 6.7 99 1015.5 8.3 S 9.8 0.0 1.1
18:51 6.8 6.7 99 1015.4 7.6 S 9.8 0.0 1.1
18:52 6.9 6.8 99 1015.4 8.3 S 9.8 0.0 1.1
18:53 6.9 6.8 99 1015.4 7.6 SE 9.8 0.0 1.1
18:54 6.9 6.8 99 1015.4 8.3 S 9.8 0.0 1.1
18:55 6.9 6.8 99 1015.4 7.6 NW 9.8 0.0 1.1
18:56 7.0 6.9 99 1015.3 7.6 S 8.3 0.0 1.1
18:57 7.0 6.9 99 1015.5 7.6 NW 8.3 0.0 1.1
18:58 7.1 7.0 99 1015.3 9.2 S 9.2 0.0 1.1
18:59 7.1 7.0 99 1015.3 9.2 SE 9.2 0.0 1.1
19:01 7.1 7.0 99 1015.4 9.2 SE 9.2 0.0 1.1
19:02 7.1 7.0 99 1015.4 9.2 SE 9.2 0.0 1.1
19:03 7.1 7.0 99 1015.4 9.2 SE 9.2 0.0 1.1
19:04 7.1 7.0 99 1015.5 9.2 SE 9.2 0.0 1.1
19:05 7.3 7.2 99 1015.4 8.3 S 9.2 0.0 1.1
19:06 7.3 7.2 99 1015.5 9.2 S 12.1 0.0 1.1
19:07 7.3 7.2 99 1015.4 9.2 S 12.1 0.0 1.1
19:09 7.3 7.2 99 1015.4 8.3 S 12.1 0.0 1.1
19:10 7.4 7.3 99 1015.5 9.8 S 12.1 0.0 1.1
19:11 7.4 7.3 99 1015.4 11.4 S 12.1 0.0 1.1
19:12 7.4 7.3 99 1015.4 9.2 S 12.1 0.0 1.1
19:13 7.4 7.3 99 1015.4 12.1 S 12.1 0.0 1.1
19:14 7.5 7.4 99 1015.5 8.3 S 12.1 0.0 1.1
19:15 7.5 7.4 99 1015.3 9.8 S 12.1 0.0 1.1
19:16 7.5 7.4 99 1015.4 11.4 NW 12.1 0.0 1.1
19:17 7.6 7.5 99 1015.5 11.4 S 12.1 0.0 1.1
19:19 7.6 7.5 99 1015.2 9.2 S 12.1 0.0 1.1
19:20 7.6 7.5 99 1015.5 13.0 SE 13.0 0.0 1.1
19:21 7.6 7.5 99 1015.3 9.8 S 13.0 0.0 1.1
19:22 7.7 7.6 99 1015.4 9.2 S 13.0 0.0 1.1
19:23 7.7 7.6 99 1015.3 9.8 S 13.0 0.0 1.1
19:24 7.7 7.6 99 1015.4 9.2 S 13.0 0.0 1.1
19:25 7.7 7.6 99 1015.3 8.3 S 13.0 0.0 1.1
19:26 7.7 7.6 99 1015.3 9.8 S 13.0 0.0 1.1
19:28 7.7 7.6 99 1015.4 9.2 S 13.0 0.0 1.1
19:29 7.7 7.6 99 1015.3 9.8 S 13.0 0.0 1.1
19:30 7.7 7.6 99 1015.4 11.4 S 13.0 0.0 1.1
19:31 7.7 7.6 99 1015.4 10.7 S 11.4 0.0 1.1
19:32 7.8 7.7 99 1015.4 12.1 SE 13.6 0.0 1.1
19:33 7.8 7.7 99 1015.4 10.7 S 13.6 0.0 1.1
19:34 7.9 7.8 99 1015.3 9.8 S 13.6 0.0 1.1
19:35 7.9 7.8 99 1015.3 9.2 S 13.6 0.0 1.1
19:36 7.9 7.8 99 1015.3 10.7 SE 13.6 0.0 1.1
19:38 7.9 7.8 99 1015.2 11.4 S 14.5 0.0 1.1
19:39 7.9 7.8 99 1015.2 12.1 SE 14.5 0.0 1.1
19:40 7.9 7.8 99 1015.0 12.1 S 14.5 0.0 1.1
19:41 8.0 7.9 99 1015.1 11.4 SE 14.5 0.0 1.1
19:42 8.0 7.9 99 1015.2 11.4 S 14.5 0.0 1.1
19:43 8.0 7.9 99 1015.1 10.7 S 14.5 0.0 1.1
19:44 8.0 7.9 99 1015.0 13.0 S 14.5 0.0 1.1
19:45 8.0 7.9 99 1015.0 12.1 SW 14.5 0.0 1.1
19:47 8.0 7.9 99 1014.9 11.4 S 14.5 0.0 1.1
19:48 8.0 7.9 99 1014.8 11.4 S 13.0 0.0 1.1
19:49 8.0 7.9 99 1014.9 13.0 S 13.0 0.0 1.1
19:50 8.0 7.9 99 1014.8 13.0 S 13.0 0.0 1.1
19:52 8.1 8.0 99 1014.9 10.7 S 13.6 0.0 1.1
19:53 8.1 8.0 99 1014.9 12.1 S 13.6 0.0 1.1
19:54 8.1 8.0 99 1014.9 13.0 S 13.6 0.0 1.1
19:55 8.1 8.0 99 1015.1 11.4 S 13.6 0.0 1.1
19:57 8.1 8.0 99 1014.9 11.4 S 13.6 0.0 1.1
20:00 8.1 8.0 99 1014.9 12.1 S 13.6 0.0 1.1
20:03 8.1 8.0 99 1014.7 12.1 S 13.6 0.0 1.1
20:06 8.2 8.1 99 1014.7 8.3 S 13.0 0.0 1.1
20:07 8.2 8.1 99 1014.6 9.8 S 13.0 0.0 1.1
20:09 8.1 8.0 99 1014.6 9.8 S 13.0 0.0 1.1
20:12 8.1 8.0 99 1014.7 9.8 NNW 13.0 0.0 1.1
20:14 8.2 8.1 99 1014.5 7.6 S 13.0 0.0 1.1
20:16 8.1 8.0 99 1014.5 8.3 S 12.1 0.0 1.1
20:18 8.1 8.0 99 1014.6 9.2 S 12.1 0.0 1.1
20:20 8.1 8.0 99 1014.6 9.8 W 11.4 0.0 1.1
20:22 8.1 8.0 99 1014.5 9.2 S 11.4 0.0 1.1
20:24 8.1 8.0 99 1014.4 7.6 S 11.4 0.0 1.1
20:26 8.1 8.0 99 1014.3 9.8 S 10.7 0.0 1.1
20:28 8.1 8.0 99 1014.2 12.1 WSW 12.1 0.0 1.1
20:29 8.1 8.0 99 1014.3 10.7 S 12.1 0.0 1.1
20:30 8.1 8.0 99 1014.2 7.6 N 12.1 0.0 1.1
20:31 8.1 8.0 99 1014.3 8.3 N 12.1 0.0 1.1
20:32 8.1 8.0 99 1014.3 10.7 S 12.1 0.0 1.1
20:34 8.1 8.0 99 1014.3 10.7 S 12.1 0.0 1.1
20:35 8.1 8.0 99 1014.0 11.4 S 12.1 0.0 1.1
20:36 8.1 8.0 99 1014.1 13.6 S 13.6 0.0 1.1
20:37 8.1 8.0 99 1014.1 11.4 S 13.6 0.0 1.1
20:38 8.2 8.1 99 1014.1 13.0 SE 13.6 0.0 1.1
20:39 8.2 8.1 99 1014.1 11.4 WSW 13.6 0.0 1.1
20:41 8.2 8.1 99 1014.0 9.8 S 13.6 0.0 1.1
20:42 8.2 8.1 99 1014.1 10.7 S 13.6 0.0 1.1
20:44 8.3 8.2 99 1014.1 13.0 S 13.6 0.0 1.1
20:45 8.3 8.2 99 1014.1 11.4 S 13.6 0.0 1.1
20:47 8.3 8.2 99 1014.1 13.0 S 13.0 0.0 1.1
20:48 8.4 8.3 99 1014.0 14.5 SSW 15.9 0.0 1.1
20:49 8.4 8.3 99 1014.0 13.0 S 15.9 0.0 1.1
20:50 8.4 8.3 99 1014.0 13.0 S 15.9 0.0 1.1
20:52 8.4 8.3 99 1014.0 14.5 S 15.9 0.0 1.1
20:53 8.4 8.3 99 1014.1 15.2 S 15.9 0.0 1.1
20:54 8.5 8.4 99 1013.9 12.1 WNW 15.9 0.0 1.1
20:55 8.5 8.4 99 1013.9 13.0 SE 15.9 0.0 1.1
20:56 8.5 8.4 99 1014.0 15.9 SW 15.9 0.0 1.1
20:57 8.5 8.4 99 1014.0 15.2 WSW 15.9 0.0 1.1
20:59 8.5 8.4 99 1013.8 18.3 S 18.3 0.0 1.1
21:00 8.6 8.5 99 1014.1 15.2 WSW 18.3 0.0 1.1
21:01 8.6 8.5 99 1014.1 18.3 S 18.3 0.0 1.1
21:03 8.6 8.5 99 1013.9 10.7 WSW 18.3 0.0 1.1
21:04 8.6 8.5 99 1014.1 16.8 WSW 18.3 0.0 1.1
21:05 8.6 8.5 99 1014.1 13.0 S 18.3 0.0 1.1
21:06 8.5 8.4 99 1013.9 15.2 S 18.3 0.0 1.1
21:07 8.5 8.4 99 1014.0 12.1 S 18.3 0.0 1.1
21:08 8.5 8.4 99 1013.8 12.1 S 18.3 0.0 1.1
21:10 8.5 8.4 99 1013.7 13.6 S 18.3 0.0 1.1
21:11 8.5 8.4 99 1013.7 10.7 WSW 18.3 0.0 1.1
21:12 8.5 8.4 99 1013.7 9.8 S 16.8 0.0 1.1
21:13 8.5 8.4 99 1013.8 13.0 S 16.8 0.0 1.1
21:14 8.5 8.4 99 1013.6 8.3 S 16.8 0.0 1.1
21:15 8.5 8.4 99 1013.7 13.6 S 15.2 0.0 1.1
21:16 8.5 8.4 99 1013.8 13.0 S 15.9 0.0 1.1
21:17 8.5 8.4 99 1013.8 10.7 WSW 15.9 0.0 1.1
21:18 8.5 8.4 99 1013.7 9.8 S 15.9 0.0 1.1
21:20 8.5 8.4 99 1013.8 14.5 S 15.9 0.0 1.1
21:21 8.5 8.4 99 1013.9 15.2 S 15.9 0.0 1.1
21:22 8.5 8.4 99 1013.7 13.0 SE 15.9 0.0 1.1
21:23 8.5 8.4 99 1013.8 13.6 S 15.9 0.0 1.1
21:24 8.5 8.4 99 1013.7 11.4 S 15.9 0.0 1.1
21:25 8.4 8.3 99 1013.7 13.0 S 15.9 0.0 1.1
21:26 8.5 8.4 99 1013.7 9.8 WSW 15.2 0.0 1.1
21:27 8.4 8.3 99 1013.8 12.1 W 15.2 0.0 1.1
21:28 8.4 8.3 99 1013.7 14.5 WSW 15.2 0.0 1.1
21:29 8.4 8.3 99 1013.8 12.1 WSW 15.2 0.0 1.1
21:31 8.4 8.3 99 1013.7 15.2 S 15.2 0.0 1.1
21:32 8.4 8.3 99 1013.9 13.6 S 15.2 0.0 1.1
21:33 8.4 8.3 99 1013.7 15.9 S 15.9 0.0 1.1
21:34 8.4 8.3 99 1013.9 17.4 W 17.4 0.0 1.1
21:35 8.4 8.3 99 1013.8 15.2 S 17.4 0.0 1.1
21:36 8.4 8.3 99 1013.9 13.0 S 17.4 0.0 1.1
21:37 8.4 8.3 99 1013.8 16.8 WSW 17.4 0.0 1.1
21:38 8.4 8.3 99 1013.9 16.8 WSW 17.4 0.0 1.1
21:39 8.4 8.3 99 1013.7 17.4 WSW 17.4 0.0 1.1
21:41 8.4 8.3 99 1013.7 13.6 WSW 17.4 0.0 1.1
21:42 8.4 8.3 99 1013.7 11.4 S 17.4 0.0 1.1
21:43 8.4 8.3 99 1013.8 9.8 S 17.4 0.0 1.1
21:44 8.4 8.3 99 1013.6 12.1 S 17.4 0.0 1.1
21:45 8.3 8.2 99 1013.5 14.5 S 17.4 0.0 1.1
21:46 8.3 8.2 99 1013.8 16.8 S 17.4 0.0 1.1
21:47 8.3 8.2 99 1013.8 10.7 WSW 17.4 0.0 1.1
21:48 8.4 8.3 99 1013.7 12.1 S 17.4 0.0 1.1
21:49 8.3 8.2 99 1013.7 14.5 WSW 16.8 0.0 1.1
21:51 8.3 8.2 99 1013.6 11.4 S 16.8 0.0 1.1
21:52 8.3 8.2 99 1013.7 11.4 S 16.8 0.0 1.1
21:53 8.3 8.2 99 1013.7 11.4 WSW 16.8 0.0 1.1
21:54 8.3 8.2 99 1013.6 14.5 S 16.8 0.0 1.1
21:55 8.3 8.2 99 1013.6 13.0 S 16.8 0.0 1.1
21:56 8.4 8.3 99 1013.4 13.6 S 14.5 0.0 1.1
21:57 8.4 8.3 99 1013.4 13.0 S 14.5 0.0 1.1
21:58 8.4 8.3 99 1013.4 13.6 WSW 14.5 0.0 1.1
21:59 8.3 8.2 99 1013.6 13.6 S 14.5 0.0 1.1
22:00 8.4 8.3 99 1013.6 15.2 S 15.2 0.0 1.1
22:01 8.4 8.3 99 1013.5 15.2 S 15.2 0.0 1.1
22:03 8.4 8.3 99 1013.5 10.7 S 15.2 0.0 1.1
22:04 8.4 8.3 99 1013.5 13.0 WSW 15.2 0.0 1.1
22:05 8.4 8.3 99 1013.6 15.2 S 15.2 0.0 1.1
22:06 8.4 8.3 99 1013.5 15.9 S 15.9 0.0 1.1
22:07 8.4 8.3 99 1013.5 11.4 S 15.9 0.0 1.1
22:08 8.4 8.3 99 1013.7 9.8 S 15.9 0.0 1.1
22:09 8.4 8.3 99 1013.6 16.8 WSW 16.8 0.0 1.1
22:10 8.4 8.3 99 1013.7 18.3 S 18.3 0.0 1.1
22:12 8.4 8.3 99 1013.7 11.4 S 18.3 0.0 1.1
22:14 8.4 8.3 99 1013.6 13.0 S 18.3 0.0 1.1
22:15 8.4 8.3 99 1013.8 13.0 S 18.3 0.0 1.1
22:17 8.4 8.3 99 1013.6 15.2 WNW 18.3 0.0 1.1
22:18 8.4 8.3 99 1013.6 15.2 WSW 18.3 0.0 1.1
22:20 8.4 8.3 99 1013.7 15.9 S 15.9 0.0 1.1
22:22 8.4 8.3 99 1013.6 14.5 NNE 15.9 0.0 1.1
22:23 8.5 8.4 99 1013.5 9.8 N 15.9 0.0 1.1
22:25 8.5 8.4 99 1013.6 13.0 S 15.9 0.0 1.1
22:26 8.4 8.3 99 1013.2 16.8 S 16.8 0.0 1.1
22:27 8.5 8.4 99 1013.4 14.5 WSW 16.8 0.0 1.1
22:28 8.5 8.4 99 1013.5 19.0 WSW 19.0 0.0 1.1
22:30 8.5 8.4 99 1013.3 15.2 S 19.0 0.0 1.1
22:31 8.5 8.4 99 1013.3 13.0 S 19.0 0.0 1.1
22:32 8.5 8.4 99 1013.4 11.4 S 19.0 0.0 1.1
22:33 8.5 8.4 99 1013.2 13.0 WSW 19.0 0.0 1.1
22:34 8.5 8.4 99 1013.2 12.1 S 19.0 0.0 1.1
22:35 8.5 8.4 99 1013.2 14.5 SE 19.0 0.0 1.1
22:36 8.5 8.4 99 1013.2 13.6 S 19.0 0.0 1.1
22:37 8.5 8.4 99 1013.2 12.1 S 19.0 0.0 1.1
22:38 8.5 8.4 99 1013.2 9.8 S 19.0 0.0 1.1
22:39 8.5 8.4 99 1013.0 15.2 S 18.3 0.0 1.1
22:41 8.5 8.4 99 1013.1 15.2 S 16.8 0.0 1.1
22:42 8.5 8.4 99 1013.2 16.8 S 16.8 0.0 1.1
22:43 8.5 8.4 99 1013.2 14.5 S 16.8 0.0 1.1
22:44 8.5 8.4 99 1013.2 15.2 S 16.8 0.0 1.1
22:45 8.6 8.5 99 1013.1 16.8 S 16.8 0.0 1.1
22:46 8.6 8.5 99 1013.1 10.7 S 16.8 0.0 1.1
22:47 8.6 8.5 99 1013.0 10.7 WSW 16.8 0.0 1.1
22:48 8.6 8.5 99 1013.0 15.9 S 16.8 0.0 1.1
22:49 8.6 8.5 99 1013.0 14.5 WSW 16.8 0.0 1.1
22:50 8.6 8.5 99 1013.0 17.4 S 17.4 0.0 1.1
22:52 8.6 8.5 99 1013.1 15.2 S 17.4 0.0 1.1
22:53 8.6 8.5 99 1012.8 15.2 S 17.4 0.0 1.1
22:54 8.6 8.5 99 1012.8 13.6 WSW 17.4 0.0 1.1
22:55 8.6 8.5 99 1012.9 19.7 S 19.7 0.0 1.1
22:56 8.6 8.5 99 1012.8 15.9 S 19.7 0.0 1.1
22:57 8.6 8.5 99 1012.9 16.8 WSW 19.7 0.0 1.1
22:58 8.6 8.5 99 1012.9 15.9 S 19.7 0.0 1.1
22:59 8.6 8.5 99 1012.8 19.0 S 19.7 0.0 1.1
23:00 8.6 8.5 99 1012.7 19.0 S 19.7 0.0 1.1
23:02 8.6 8.5 99 1012.8 19.0 S 19.7 0.0 1.1
23:03 8.6 8.5 99 1012.8 19.0 S 19.7 0.0 1.1
23:04 8.6 8.5 99 1012.7 19.0 S 19.7 0.0 1.1
23:05 8.6 8.5 99 1012.6 19.0 S 19.7 0.0 1.1
23:06 8.6 8.5 99 1012.8 15.9 S 19.0 0.0 1.1
23:16 8.6 8.5 99 1012.7 23.5 NNW 23.5 0.0 1.2
23:17 8.6 8.5 99 1012.6 22.1 S 23.5 0.0 1.3
23:23 8.5 8.4 99 1012.5 21.3 WSW 23.5 0.0 1.3
23:24 8.5 8.4 99 1012.4 17.4 S 23.5 0.0 1.3
23:25 8.5 8.4 99 1012.4 22.1 S 23.5 0.0 1.3
23:26 8.5 8.4 99 1012.3 16.8 S 22.1 0.0 1.3
23:27 8.5 8.4 99 1012.5 14.5 S 22.1 0.0 1.3
23:28 8.4 8.3 99 1012.3 13.0 S 22.1 0.0 1.3
23:30 8.4 8.3 99 1012.2 19.0 WSW 22.1 0.0 1.3
23:31 8.4 8.3 99 1012.3 16.8 WSW 22.1 0.0 1.3
23:32 8.4 8.3 99 1012.3 15.2 SE 22.1 0.0 1.3
23:33 8.4 8.3 99 1012.3 18.3 WSW 22.1 0.0 1.3
23:35 8.4 8.3 99 1012.3 20.6 S 22.1 0.0 1.3
23:37 8.4 8.3 99 1012.2 18.3 WSW 22.1 0.0 1.3
23:39 8.4 8.3 99 1012.1 18.3 SE 22.1 0.0 1.3
23:40 8.4 8.3 99 1012.0 15.9 S 22.1 0.0 1.3
23:42 8.3 8.2 99 1011.9 22.8 WSW 22.8 0.0 1.3
23:44 8.4 8.3 99 1011.9 19.7 S 22.8 0.0 1.3
23:46 8.4 8.3 99 1011.7 21.3 S 22.8 0.0 1.3
23:48 8.4 8.3 99 1011.6 19.7 SE 22.8 0.0 1.3
23:49 8.4 8.3 99 1011.7 18.3 S 22.8 0.0 1.3
23:50 8.4 8.3 99 1011.6 22.8 SW 23.5 0.0 1.3
23:56 8.5 8.4 99 1011.5 19.7 WSW 23.5 0.0 1.3
23:57 8.4 8.3 99 1011.3 22.1 S 23.5 0.0 1.3
23:58 8.4 8.3 99 1011.2 19.7 SE 23.5 0.0 1.3
23:59 8.5 8.4 99 1011.6 20.6 S 23.5 0.0 1.4
02:20 6.8 6.7 99 1014.7 0.0 E 1.6 0.8 0.1
02:21 6.8 6.7 99 1014.6 2.2 E 2.2 0.8 0.1
02:22 6.8 6.7 99 1014.6 1.6 E 2.2 0.8 0.1
02:23 6.8 6.7 99 1014.6 0.7 E 2.2 0.8 0.1
02:24 6.8 6.7 99 1014.8 0.0 E 2.2 0.8 0.1
02:57 6.8 6.7 99 1015.0 0.7 E 1.6 0.8 0.1
02:58 6.8 6.7 99 1015.1 2.2 E 2.2 0.8 0.1
02:59 6.8 6.7 99 1015.1 2.2 E 2.2 0.8 0.1
03:00 6.8 6.7 99 1015.1 1.6 E 2.2 0.8 0.1
03:01 6.8 6.7 99 1015.0 1.6 E 2.2 0.8 0.1
03:06 6.8 6.7 99 1015.0 1.6 E 2.2 0.8 0.2
03:07 6.8 6.7 99 1015.1 1.6 E 2.2 0.8 0.2
03:08 6.8 6.7 99 1015.0 0.7 E 2.2 0.8 0.3
03:16 6.8 6.7 99 1015.1 0.7 E 1.6 0.8 0.4
03:17 6.8 6.7 99 1015.0 0.0 E 1.6 0.8 0.4
03:18 6.8 6.7 99 1015.1 0.0 E 1.6 0.8 0.4
03:20 6.8 6.7 99 1015.0 0.7 E 1.6 0.8 0.4
03:21 6.8 6.7 99 1014.9 0.0 E 1.6 0.8 0.5
03:25 6.8 6.7 99 1015.1 0.7 E 0.7 0.8 0.6
03:27 6.8 6.7 99 1015.1 0.7 E 0.7 0.8 0.6
03:29 6.8 6.7 99 1014.9 0.7 E 0.7 0.8 0.6
03:30 6.8 6.7 99 1015.0 0.7 E 0.7 0.8 0.6
03:32 6.7 6.6 99 1014.9 0.7 E 0.7 0.8 0.6
03:33 6.8 6.7 99 1015.0 2.2 E 2.2 0.8 0.6
03:34 6.8 6.7 99 1015.1 0.7 E 2.2 0.8 0.6
03:35 6.8 6.7 99 1014.9 0.7 E 2.2 0.8 0.6
03:36 6.8 6.7 99 1015.0 0.7 E 2.2 0.8 0.6
03:39 6.8 6.7 99 1015.0 1.6 E 2.2 0.8 0.7
03:40 6.8 6.7 99 1014.9 1.6 E 2.2 0.8 0.7
03:41 6.8 6.7 99 1015.1 2.2 E 2.2 0.8 0.7
03:43 6.8 6.7 99 1015.2 1.6 E 2.2 0.8 0.7
03:45 6.7 6.6 99 1015.2 1.6 E 2.2 0.8 0.8
03:46 6.8 6.7 99 1015.2 2.2 E 2.2 0.8 0.8
03:47 6.7 6.6 99 1015.1 1.6 E 2.2 0.8 0.8
03:48 6.8 6.7 99 1015.1 0.7 E 2.2 0.8 0.8
03:49 6.8 6.7 99 1015.1 0.0 E 2.2 0.8 0.8
03:50 6.8 6.7 99 1015.1 1.6 E 2.2 0.8 0.8
03:51 6.8 6.7 99 1015.1 0.7 E 2.2 0.8 0.8
03:52 6.8 6.7 99 1015.0 1.6 E 2.2 0.8 0.8
03:53 6.8 6.7 99 1015.1 2.2 E 2.2 0.8 0.8
03:55 6.7 6.6 99 1015.1 1.6 E 2.2 0.8 0.8
04:10 6.8 6.7 99 1015.2 1.6 NE 3.1 0.8 0.9
04:11 6.8 6.7 99 1015.1 2.2 NE 3.1 0.8 0.9
04:12 6.8 6.7 99 1015.1 1.6 NE 3.1 0.8 0.9
04:13 6.7 6.6 99 1015.1 2.2 NE 3.1 0.8 0.9
04:21 6.8 6.7 99 1015.1 0.7 NE 2.2 0.8 0.9
04:22 6.8 6.7 99 1015.1 3.1 SE 3.1 0.8 0.9
04:23 6.7 6.6 99 1015.1 1.6 SE 3.1 0.8 0.9
04:24 6.7 6.6 99 1015.1 0.7 SE 3.1 0.8 0.9
04:25 6.7 6.6 99 1015.2 1.6 SE 3.1 0.8 0.9
04:37 6.7 6.6 99 1015.2 3.1 SE 5.4 0.8 1.0
04:38 6.7 6.6 99 1015.4 2.2 SE 5.4 0.8 1.0
04:39 6.7 6.6 99 1015.3 2.2 SE 5.4 0.8 1.0
04:40 6.7 6.6 99 1015.3 1.6 SE 5.4 0.8 1.0
04:41 6.7 6.6 99 1015.3 1.6 SE 5.4 0.8 1.0
05:46 6.6 6.5 99 1015.3 1.6 SE 1.6 0.8 1.1
05:47 6.6 6.5 99 1015.4 0.7 SE 1.6 0.8 1.1
05:48 6.6 6.5 99 1015.3 1.6 SE 1.6 0.8 1.1
05:49 6.6 6.5 99 1015.4 1.6 SE 1.6 0.8 1.1
05:50 6.6 6.5 99 1015.2 2.2 SE 2.2 0.8 1.1
23:07 8.6 8.5 99 1012.8 13.0 WSW 19.0 0.8 1.1
23:08 8.6 8.5 99 1012.7 14.5 S 19.0 0.8 1.1
23:09 8.6 8.5 99 1012.8 13.6 S 19.0 0.8 1.1
23:10 8.6 8.5 99 1012.8 15.2 S 19.0 0.8 1.1
23:13 8.6 8.5 99 1012.7 16.8 WSW 19.0 0.8 1.2
23:14 8.6 8.5 99 1012.7 18.3 NNW 19.7 0.8 1.2
23:15 8.5 8.4 99 1012.8 13.6 WNW 19.7 0.8 1.2
23:19 8.5 8.4 99 1012.7 16.8 S 23.5 0.8 1.3
23:20 8.5 8.4 99 1012.6 18.3 S 23.5 0.8 1.3
23:21 8.5 8.4 99 1012.6 16.8 S 23.5 0.8 1.3
23:51 8.4 8.3 99 1011.7 15.9 S 23.5 0.8 1.3
23:52 8.4 8.3 99 1011.5 22.8 S 23.5 0.8 1.3
23:53 8.4 8.3 99 1011.6 18.3 S 23.5 0.8 1.3
23:54 8.4 8.3 99 1011.4 14.5 S 23.5 0.8 1.3
03:09 6.8 6.7 99 1015.0 0.7 E 1.6 1.5 0.3
03:10 6.8 6.7 99 1015.1 0.0 E 1.6 1.5 0.3
03:12 6.8 6.7 99 1014.9 0.7 E 1.6 1.5 0.3
03:13 6.8 6.7 99 1015.0 1.6 E 1.6 1.5 0.3
03:14 6.8 6.7 99 1015.1 0.0 E 1.6 1.5 0.4
03:15 6.8 6.7 99 1015.1 0.7 E 1.6 1.5 0.4
03:22 6.8 6.7 99 1015.0 0.0 E 1.6 1.5 0.5
03:23 6.8 6.7 99 1015.0 0.0 E 0.7 1.5 0.5
03:24 6.8 6.7 99 1015.1 0.0 E 0.7 1.5 0.5
03:26 6.8 6.7 99 1015.0 0.7 E 0.7 1.5 0.6
23:11 8.6 8.5 99 1012.8 15.9 WNW 19.0 1.5 1.2

UK - WEATHER STATION TOPSITES - UK World Weather Websites

This is a private weather station, never base important decisions or events on data from this weather station. Although every effort has been made to make the data as accurate as possible it does not meet MetOffice standards. It is proved as a guide of local weather conditions. We accept no liability for any loss which may arise from use of the data.

Copyright © Carnkie Weather 2009 - 2018.